M I D A S
Marine Information and Data Acquisition System
Tripno 1648 of the Zeeleeuw from 2009-02-27 08:53:17 to 2009-02-27 17:11:21
Back to CruiseResearch ActivitiesStationsMapUnderway DataData graphs

EquipmentUnitsComment
TimeDGPSUTC
LatitudeDGPSDM.mWGS84
LongitudeDGPSDM.mWGS84
TemperatureSBE03/SBE38deg celciusITS90
ConductivitySBE21S/mITS90
SalinitySBE21 Practical Salinity Units
ChlorophylAChelsea fluorimeterg/lCalibrated in Aceton
Missing or incorrect values are displayed as -999
Sea surface data collected by the RV Zeeleeuw from 2009-02-27 08:38:06 to 2009-02-27 17:10:25
                                                                                    Next 1000 lines
Time Latitude Longitude Temperature Conductivity Salinity ChlorophylA
2009-02-27 08:38:16 51°13.664 2°55.957 -999 0.075859 0.412564 -1.279161
2009-02-27 08:38:20 51°13.664 2°55.956 -999 0.075859 0.412564 -1.279161
2009-02-27 08:38:25 51°13.665 2°55.954 -999 0.075859 0.412564 -1.279161
2009-02-27 08:38:31 51°13.666 2°55.951 -999 0.075859 0.412572 -1.279161
2009-02-27 08:38:36 51°13.667 2°55.949 -999 0.075859 0.412572 -1.279161
2009-02-27 08:38:40 51°13.667 2°55.947 -999 0.075859 0.412579 -1.279161
2009-02-27 08:38:45 51°13.668 2°55.944 -999 0.075859 0.412579 -1.279161
2009-02-27 08:38:50 51°13.669 2°55.941 -999 0.075859 0.412579 -1.279161
2009-02-27 08:38:56 51°13.67 2°55.937 -999 0.075859 0.412579 -1.279161
2009-02-27 08:39:00 51°13.671 2°55.934 -999 0.075859 0.412586 -1.279161
2009-02-27 08:39:05 51°13.672 2°55.93 -999 0.075859 0.412586 -1.279161
2009-02-27 08:39:11 51°13.674 2°55.925 -999 0.075859 0.412586 -1.279161
2009-02-27 08:39:16 51°13.675 2°55.92 -999 0.075859 0.412593 -1.279161
2009-02-27 08:39:20 51°13.677 2°55.916 -999 0.075859 0.412593 -1.244337
2009-02-27 08:39:25 51°13.679 2°55.911 -999 0.075859 0.412593 -1.244337
2009-02-27 08:39:31 51°13.681 2°55.904 -999 0.075859 0.412593 -1.279161
2009-02-27 08:39:36 51°13.683 2°55.898 -999 0.075859 0.412601 -1.279161
2009-02-27 08:39:40 51°13.685 2°55.893 -999 0.075859 0.412601 -1.279161
2009-02-27 08:39:46 51°13.687 2°55.885 -999 0.075859 0.412608 -1.279161
2009-02-27 08:39:51 51°13.69 2°55.879 -999 0.075859 0.412615 -1.279161
2009-02-27 08:39:56 51°13.692 2°55.872 -999 0.075859 0.412615 -1.279161
2009-02-27 08:40:00 51°13.694 2°55.867 -999 0.075859 0.412615 -1.279161
2009-02-27 08:40:05 51°13.695 2°55.86 -999 0.075859 0.412615 -1.279161
2009-02-27 08:40:11 51°13.697 2°55.852 -999 0.075859 0.412622 -1.279161
2009-02-27 08:40:16 51°13.698 2°55.844 -999 0.075859 0.412622 -1.279161
2009-02-27 08:40:20 51°13.699 2°55.839 -999 0.075859 0.412622 -1.279161
2009-02-27 08:40:26 51°13.7 2°55.83 -999 0.075859 0.412622 -1.279161
2009-02-27 08:40:31 51°13.7 2°55.824 -999 0.075859 0.412622 -1.279161
2009-02-27 08:40:36 51°13.701 2°55.817 -999 0.075859 0.412622 -1.244337
2009-02-27 08:40:40 51°13.701 2°55.811 -999 0.075859 0.412622 -1.279161
2009-02-27 08:40:45 51°13.701 2°55.805 -999 0.075859 0.412622 -1.279161
2009-02-27 08:40:51 51°13.701 2°55.797 -999 0.075859 0.412622 -1.279161
2009-02-27 08:40:56 51°13.701 2°55.791 -999 0.075859 0.412622 -1.279161
2009-02-27 08:41:00 51°13.701 2°55.786 -999 0.075859 0.412622 -1.279161
2009-02-27 08:41:05 51°13.701 2°55.78 -999 0.075859 0.412622 -1.279161
2009-02-27 08:41:11 51°13.701 2°55.773 -999 0.075859 0.412622 -1.279161
2009-02-27 08:41:16 51°13.701 2°55.768 -999 0.075859 0.41263 -1.279161
2009-02-27 08:41:20 51°13.701 2°55.764 -999 0.075756 0.412051 -1.279161
2009-02-27 08:41:25 51°13.7 2°55.759 -999 0.075756 0.412051 -1.279161
2009-02-27 08:41:31 51°13.7 2°55.755 -999 0.075756 0.412051 -1.279161
2009-02-27 08:41:35 51°13.7 2°55.754 -999 0.075859 0.41263 -1.279161
2009-02-27 08:41:40 51°13.7 2°55.753 -999 0.075756 0.412051 -1.279161
2009-02-27 08:41:46 51°13.701 2°55.753 -999 0.075859 0.41263 -1.279161
2009-02-27 08:41:50 51°13.702 2°55.753 -999 0.075756 0.412051 -1.279161
2009-02-27 08:41:55 51°13.703 2°55.754 -999 0.075756 0.412051 -1.279161
2009-02-27 08:42:00 51°13.705 2°55.756 -999 0.075756 0.412058 -1.279161
2009-02-27 08:42:05 51°13.706 2°55.757 -999 0.075756 0.412065 -1.279161
2009-02-27 08:42:10 51°13.708 2°55.758 -999 0.075756 0.412072 -1.279161
2009-02-27 08:42:15 51°13.709 2°55.759 -999 0.075756 0.412079 -1.279161
2009-02-27 08:42:20 51°13.71 2°55.76 -999 0.075756 0.412079 -1.279161
2009-02-27 08:42:25 51°13.711 2°55.759 -999 0.075756 0.412079 -1.279161
2009-02-27 08:42:30 51°13.71 2°55.759 -999 0.075756 0.412087 -1.279161
2009-02-27 08:42:35 51°13.71 2°55.758 -999 0.075756 0.412087 -1.279161
2009-02-27 08:42:40 51°13.709 2°55.757 -999 0.075859 0.412659 -1.279161
2009-02-27 08:42:45 51°13.708 2°55.757 -999 0.075756 0.412079 -1.279161
2009-02-27 08:42:50 51°13.707 2°55.756 -999 0.075756 0.412079 -1.279161
2009-02-27 08:42:55 51°13.707 2°55.755 -999 0.075756 0.412079 -1.279161
2009-02-27 08:43:00 51°13.707 2°55.755 -999 0.075756 0.412072 -1.279161
2009-02-27 08:43:05 51°13.707 2°55.754 -999 0.075756 0.412072 -1.279161
2009-02-27 08:43:10 51°13.707 2°55.754 -999 0.075756 0.412072 -1.244337
2009-02-27 08:43:16 51°13.708 2°55.754 -999 0.075756 0.412065 -1.279161
2009-02-27 08:43:20 51°13.709 2°55.753 -999 0.075756 0.412072 -1.279161
2009-02-27 08:43:25 51°13.71 2°55.752 -999 0.075756 0.412072 -1.279161
2009-02-27 08:43:30 51°13.712 2°55.751 -999 0.075859 0.412651 -1.279161
2009-02-27 08:43:36 51°13.714 2°55.749 -999 0.075756 0.412072 -1.279161
2009-02-27 08:43:40 51°13.716 2°55.747 -999 0.075756 0.412079 -1.244337
2009-02-27 08:43:45 51°13.718 2°55.744 -999 0.075756 0.412079 -1.279161
2009-02-27 08:43:50 51°13.722 2°55.74 -999 0.075756 0.412087 -1.279161
2009-02-27 08:43:55 51°13.727 2°55.735 -999 0.075756 0.412087 -1.279161
2009-02-27 08:44:00 51°13.732 2°55.729 -999 0.075756 0.412087 -1.279161
2009-02-27 08:44:05 51°13.738 2°55.723 -999 0.075756 0.412087 -1.279161
2009-02-27 08:44:10 51°13.745 2°55.716 -999 0.075756 0.412087 -1.244337
2009-02-27 08:44:15 51°13.752 2°55.709 -999 0.075756 0.412087 -1.279161
2009-02-27 08:44:20 51°13.76 2°55.701 -999 0.075756 0.412094 -1.279161
2009-02-27 08:44:25 51°13.767 2°55.693 -999 0.075756 0.412094 -1.279161
2009-02-27 08:44:30 51°13.775 2°55.685 -999 0.075756 0.412094 -1.279161
2009-02-27 08:44:35 51°13.784 2°55.677 -999 0.075859 0.412673 -1.279161
2009-02-27 08:44:40 51°13.793 2°55.668 -999 0.075756 0.412101 -1.279161
2009-02-27 08:44:45 51°13.802 2°55.661 -999 0.075756 0.412101 -1.279161
2009-02-27 08:44:50 51°13.811 2°55.652 -999 0.075756 0.412116 -1.279161
2009-02-27 08:44:55 51°13.82 2°55.645 -999 0.075756 0.412116 -1.279161
2009-02-27 08:45:00 51°13.83 2°55.637 -999 0.075756 0.412116 -1.279161
2009-02-27 08:45:05 51°13.84 2°55.63 -999 0.075756 0.412123 -1.279161
2009-02-27 08:45:10 51°13.85 2°55.623 -999 0.075756 0.41213 -1.244337
2009-02-27 08:45:16 51°13.862 2°55.614 -999 0.075756 0.41213 -1.279161
2009-02-27 08:45:20 51°13.87 2°55.608 -999 0.075756 0.41213 -1.279161
2009-02-27 08:45:25 51°13.88 2°55.6 -999 0.075756 0.41213 -1.279161
2009-02-27 08:45:30 51°13.89 2°55.593 -999 0.075756 0.412137 -1.279161
2009-02-27 08:45:36 51°13.902 2°55.584 -999 0.075756 0.412137 -1.279161
2009-02-27 08:45:40 51°13.91 2°55.578 -999 0.075756 0.412137 -1.279161
2009-02-27 08:45:45 51°13.92 2°55.571 -999 0.075756 0.412137 -1.244337
2009-02-27 08:45:50 51°13.93 2°55.563 -999 0.075756 0.412137 -1.279161
2009-02-27 08:45:56 51°13.942 2°55.554 -999 0.075756 0.412137 -1.279161
2009-02-27 08:46:00 51°13.95 2°55.548 -999 0.075756 0.412137 -1.279161
2009-02-27 08:46:05 51°13.96 2°55.541 -999 0.075756 0.412137 -1.279161
2009-02-27 08:46:11 51°13.973 2°55.532 -999 0.075756 0.412137 -1.279161
2009-02-27 08:46:15 51°13.981 2°55.526 -999 0.075756 0.412137 -1.279161
2009-02-27 08:46:20 51°13.991 2°55.518 -999 0.075756 0.412137 -1.279161
2009-02-27 08:46:25 51°14.001 2°55.51 -999 0.075756 0.412137 -1.279161
2009-02-27 08:46:30 51°14.011 2°55.503 -999 0.075756 0.412137 -1.279161
2009-02-27 08:46:35 51°14.022 2°55.495 -999 0.075756 0.412137 -1.279161
2009-02-27 08:46:40 51°14.032 2°55.488 -999 0.075756 0.412137 -1.279161
2009-02-27 08:46:45 51°14.043 2°55.48 -999 0.075756 0.412137 -1.279161
2009-02-27 08:46:50 51°14.054 2°55.472 -999 0.075756 0.41213 -1.279161
2009-02-27 08:46:55 51°14.064 2°55.464 -999 0.075756 0.41213 -1.279161
2009-02-27 08:47:00 51°14.075 2°55.457 -999 0.075756 0.41213 -1.279161
2009-02-27 08:47:05 51°14.086 2°55.449 -999 0.075756 0.412137 -1.279161
2009-02-27 08:47:10 51°14.097 2°55.44 -999 0.075756 0.41213 -1.279161
2009-02-27 08:47:16 51°14.109 2°55.43 -999 0.075756 0.41213 -1.279161
2009-02-27 08:47:20 51°14.118 2°55.424 -999 0.075756 0.412137 -1.244337
2009-02-27 08:47:25 51°14.129 2°55.415 -999 0.075756 0.412137 -1.244337
2009-02-27 08:47:31 51°14.143 2°55.405 -999 0.075756 0.412137 -1.279161
2009-02-27 08:47:36 51°14.153 2°55.396 -999 0.075756 0.41213 -1.279161
2009-02-27 08:47:40 51°14.162 2°55.389 -999 0.075756 0.412137 -1.279161
2009-02-27 08:47:45 51°14.173 2°55.379 -999 0.075756 0.412145 -1.279161
2009-02-27 08:47:50 51°14.183 2°55.369 -999 0.075756 0.412145 -1.279161
2009-02-27 08:47:56 51°14.196 2°55.356 -999 0.075756 0.412145 -1.279161
2009-02-27 08:48:00 51°14.204 2°55.347 -999 0.075756 0.412145 -1.279161
2009-02-27 08:48:05 51°14.214 2°55.336 -999 0.075756 0.412152 -1.244337
2009-02-27 08:48:10 51°14.224 2°55.323 -999 0.075756 0.412159 -1.244337
2009-02-27 08:48:16 51°14.236 2°55.309 -999 0.075756 0.412159 -1.279161
2009-02-27 08:48:20 51°14.243 2°55.298 -999 0.075756 0.412166 -1.244337
2009-02-27 08:48:25 51°14.253 2°55.285 -999 0.075756 0.412166 -1.244337
2009-02-27 08:48:30 51°14.262 2°55.272 -999 0.075756 0.412166 -1.279161
2009-02-27 08:48:36 51°14.274 2°55.256 -999 0.075756 0.412166 -1.279161
2009-02-27 08:48:40 51°14.282 2°55.245 -999 0.075756 0.412173 -1.244337
2009-02-27 08:48:45 51°14.291 2°55.231 -999 0.075756 0.412173 -1.279161
2009-02-27 08:48:50 51°14.3 2°55.217 -999 0.075756 0.412181 -1.244337
2009-02-27 08:48:55 51°14.309 2°55.202 -999 0.075756 0.412181 -1.244337
2009-02-27 08:49:00 51°14.318 2°55.187 -999 0.075756 0.412188 -1.279161
2009-02-27 08:49:05 51°14.327 2°55.171 -999 0.075756 0.412188 -1.244337
2009-02-27 08:49:10 51°14.336 2°55.155 -999 0.075756 0.412195 -1.244337
2009-02-27 08:49:16 51°14.346 2°55.136 -999 0.075756 0.412195 -1.244337
2009-02-27 08:49:20 51°14.353 2°55.122 -999 0.075756 0.412195 -1.279161
2009-02-27 08:49:26 51°14.364 2°55.102 -999 0.075756 0.412195 -1.279161
2009-02-27 08:49:30 51°14.371 2°55.088 -999 0.075756 0.412195 -1.279161
2009-02-27 08:49:36 51°14.381 2°55.068 -999 0.075756 0.412195 -1.244337
2009-02-27 08:49:40 51°14.388 2°55.053 -999 0.075756 0.412202 -1.10504
2009-02-27 08:49:45 51°14.396 2°55.035 -999 0.075756 0.412202 -1.279161
2009-02-27 08:49:50 51°14.405 2°55.016 -999 0.075756 0.412202 -1.313985
2009-02-27 08:49:56 51°14.415 2°54.993 -999 0.075756 0.412202 -1.313985
2009-02-27 08:50:00 51°14.421 2°54.978 -999 0.075756 0.412202 -1.313985
2009-02-27 08:50:05 51°14.43 2°54.96 -999 0.075756 0.412202 -1.313985
2009-02-27 08:50:10 51°14.44 2°54.943 -999 0.075756 0.412202 -1.313985
2009-02-27 08:50:16 51°14.453 2°54.923 -999 0.075756 0.41221 -1.313985
2009-02-27 08:50:20 51°14.462 2°54.911 -999 0.075756 0.412224 -1.313985
2009-02-27 08:50:25 51°14.474 2°54.896 -999 0.075756 0.412224 -1.313985
2009-02-27 08:50:30 51°14.487 2°54.883 -999 0.075756 0.412224 -1.313985
2009-02-27 08:50:35 51°14.499 2°54.868 -999 0.075756 0.412246 -1.348809
2009-02-27 08:50:40 51°14.512 2°54.854 -999 0.075756 0.41226 -1.348809
2009-02-27 08:50:45 51°14.525 2°54.84 -999 0.075756 0.41226 -1.313985
2009-02-27 08:50:50 51°14.539 2°54.828 -999 0.075756 0.412275 -1.313985
2009-02-27 08:50:55 51°14.553 2°54.816 -999 0.075756 0.412275 -1.313985
2009-02-27 08:51:00 51°14.567 2°54.804 -999 0.075756 0.412275 -1.313985
2009-02-27 08:51:05 51°14.581 2°54.792 -999 0.075756 0.412282 -1.313985
2009-02-27 08:51:10 51°14.595 2°54.779 -999 0.075756 0.412275 -1.313985
2009-02-27 08:51:15 51°14.609 2°54.767 -999 0.075756 0.412268 -1.313985
2009-02-27 08:51:20 51°14.623 2°54.754 -999 0.075756 0.412253 -1.348809
2009-02-27 08:51:25 51°14.637 2°54.741 -999 0.075756 0.412253 -1.348809
2009-02-27 08:51:30 51°14.651 2°54.727 -999 0.075756 0.41226 -1.313985
2009-02-27 08:51:35 51°14.665 2°54.714 -999 0.075756 0.41226 -1.313985
2009-02-27 08:51:40 51°14.679 2°54.7 -999 0.075756 0.41226 -1.313985
2009-02-27 08:51:45 51°14.693 2°54.687 -999 0.075756 0.412275 -1.348809
2009-02-27 08:51:50 51°14.707 2°54.672 -999 0.075756 0.412275 -1.313985
2009-02-27 08:51:56 51°14.724 2°54.656 -999 0.075756 0.412275 -1.313985
2009-02-27 08:52:00 51°14.735 2°54.645 -999 0.075756 0.412282 -1.313985
2009-02-27 08:52:05 51°14.749 2°54.632 -999 0.075756 0.412289 -1.313985
2009-02-27 08:52:10 51°14.763 2°54.618 -999 0.075756 0.412297 -1.313985
2009-02-27 08:52:16 51°14.78 2°54.602 -999 0.075756 0.412304 -1.313985
2009-02-27 08:52:20 51°14.791 2°54.591 -999 0.075756 0.412297 -1.313985
2009-02-27 08:52:25 51°14.805 2°54.577 -999 0.075756 0.412297 -1.313985
2009-02-27 08:52:30 51°14.819 2°54.564 -999 0.075756 0.412297 -1.313985
2009-02-27 08:52:36 51°14.836 2°54.548 -999 0.075756 0.412297 -1.348809
2009-02-27 08:52:40 51°14.847 2°54.538 -999 0.075756 0.412289 -1.348809
2009-02-27 08:52:45 51°14.862 2°54.525 -999 0.075756 0.412297 -1.348809
2009-02-27 08:52:50 51°14.876 2°54.512 -999 0.075756 0.412304 -1.348809
2009-02-27 08:52:56 51°14.893 2°54.496 -999 0.075756 0.412304 -1.348809
2009-02-27 08:53:00 51°14.904 2°54.486 -999 0.075756 0.412311 -1.313985
2009-02-27 08:53:05 51°14.919 2°54.474 -999 0.075756 0.412318 -1.348809
2009-02-27 08:53:10 51°14.933 2°54.461 -999 0.075756 0.412325 -1.348809
2009-02-27 08:53:15 51°14.947 2°54.449 -999 0.075756 0.412333 -1.348809
2009-02-27 08:53:20 51°14.962 2°54.436 -999 0.075756 0.41234 -1.313985
2009-02-27 08:53:25 51°14.976 2°54.423 -999 0.075756 0.41234 -1.313985
2009-02-27 08:53:30 51°14.99 2°54.41 -999 0.075756 0.412354 -1.348809
2009-02-27 08:53:35 51°15.005 2°54.398 -999 0.075756 0.412347 -1.313985
2009-02-27 08:53:40 51°15.02 2°54.386 -999 0.075756 0.412354 -1.348809
2009-02-27 08:53:45 51°15.034 2°54.373 -999 0.075756 0.412362 -1.313985
2009-02-27 08:53:50 51°15.049 2°54.36 -999 0.075756 0.412376 -1.313985
2009-02-27 08:53:56 51°15.066 2°54.344 -999 0.075756 0.412376 -1.313985
2009-02-27 08:54:00 51°15.077 2°54.334 -999 0.075756 0.412376 -1.348809
2009-02-27 08:54:05 51°15.092 2°54.32 -999 0.075756 0.412383 -1.348809
2009-02-27 08:54:10 51°15.106 2°54.307 -999 0.075756 0.412391 -1.313985
2009-02-27 08:54:16 51°15.123 2°54.291 -999 0.075756 0.412405 -1.348809
2009-02-27 08:54:20 51°15.134 2°54.281 -999 0.075756 0.412412 -1.313985
2009-02-27 08:54:25 51°15.148 2°54.267 -999 0.075756 0.412412 -1.313985
2009-02-27 08:54:30 51°15.162 2°54.255 -999 0.075756 0.412412 -1.313985
2009-02-27 08:54:36 51°15.18 2°54.24 -999 0.075756 0.412427 -1.313985
2009-02-27 08:54:40 51°15.191 2°54.23 -999 0.075756 0.412434 -1.348809
2009-02-27 08:54:45 51°15.206 2°54.218 -999 0.075756 0.412434 -1.313985
2009-02-27 08:54:50 51°15.22 2°54.205 -999 0.075756 0.412463 -1.313985
2009-02-27 08:54:56 51°15.237 2°54.19 -999 0.075756 0.412463 -1.313985
2009-02-27 08:55:00 51°15.249 2°54.18 -999 0.075756 0.412456 -1.348809
2009-02-27 08:55:05 51°15.263 2°54.167 -999 0.075756 0.41247 -1.313985
2009-02-27 08:55:10 51°15.277 2°54.154 -999 0.075756 0.41247 -1.313985
2009-02-27 08:55:15 51°15.291 2°54.141 -999 0.075756 0.412478 -1.348809
2009-02-27 08:55:20 51°15.305 2°54.127 -999 0.075756 0.412492 -1.348809
2009-02-27 08:55:25 51°15.319 2°54.113 -999 0.075756 0.412492 -1.348809
2009-02-27 08:55:30 51°15.333 2°54.099 -999 0.075756 0.412492 -1.348809
2009-02-27 08:55:35 51°15.347 2°54.086 -999 0.075756 0.412499 -1.313985
2009-02-27 08:55:40 51°15.361 2°54.072 -999 0.075756 0.412514 -1.313985
2009-02-27 08:55:45 51°15.375 2°54.058 -999 0.075756 0.412507 -1.313985
2009-02-27 08:55:50 51°15.389 2°54.045 -999 0.075756 0.412521 -1.348809
2009-02-27 08:55:55 51°15.403 2°54.031 -999 0.075756 0.412521 -1.348809
2009-02-27 08:56:00 51°15.417 2°54.018 -999 0.075756 0.412528 -1.348809
2009-02-27 08:56:05 51°15.431 2°54.004 -999 0.075756 0.412536 -1.313985
2009-02-27 08:56:10 51°15.445 2°53.99 -999 0.075756 0.412543 -1.313985
2009-02-27 08:56:16 51°15.461 2°53.974 -999 0.075756 0.412543 -1.348809
2009-02-27 08:56:20 51°15.472 2°53.963 -999 0.075756 0.41255 -1.348809
2009-02-27 08:56:25 51°15.486 2°53.949 -999 0.075756 0.41255 -1.348809
2009-02-27 08:56:30 51°15.5 2°53.936 -999 0.075756 0.412557 -1.313985
2009-02-27 08:56:36 51°15.517 2°53.92 -999 0.075756 0.412565 -0.965744
2009-02-27 08:56:40 51°15.528 2°53.909 -999 0.075756 0.412572 -0.617504
2009-02-27 08:56:45 51°15.542 2°53.895 -999 0.075756 0.412579 0.427218
2009-02-27 08:56:50 51°15.555 2°53.882 -999 0.075756 0.412579 3.979271
2009-02-27 08:56:56 51°15.572 2°53.865 -999 0.075756 0.412579 3.979271
2009-02-27 08:57:00 51°15.583 2°53.854 -999 0.075756 0.412579 3.596207
2009-02-27 08:57:05 51°15.597 2°53.841 -999 0.075756 0.412594 4.466808
2009-02-27 08:57:10 51°15.611 2°53.827 -999 0.075756 0.412594 4.257864
2009-02-27 08:57:15 51°15.625 2°53.814 -999 0.075756 0.412594 5.85977
2009-02-27 08:57:20 51°15.639 2°53.801 -999 0.075756 0.412601 5.929418
2009-02-27 08:57:25 51°15.654 2°53.789 -999 0.075756 0.412601 5.929418
2009-02-27 08:57:30 51°15.668 2°53.776 -999 0.075756 0.412615 5.999067
2009-02-27 08:57:35 51°15.682 2°53.763 -999 0.075756 0.412623 5.720474
2009-02-27 08:57:40 51°15.696 2°53.75 -999 0.075756 0.412637 5.68565
2009-02-27 08:57:45 51°15.71 2°53.737 -999 0.075756 0.412644 5.546354
2009-02-27 08:57:50 51°15.724 2°53.723 -999 0.075756 0.412652 5.33741
2009-02-27 08:57:55 51°15.738 2°53.709 -999 0.075756 0.412652 5.33741
2009-02-27 08:58:00 51°15.752 2°53.696 -999 0.075756 0.412652 5.232937
2009-02-27 08:58:05 51°15.766 2°53.683 -999 0.075756 0.412659 5.128465
2009-02-27 08:58:10 51°15.781 2°53.67 -999 0.075756 0.412659 5.058817
2009-02-27 08:58:16 51°15.798 2°53.654 -999 0.075756 0.412666 4.989169
2009-02-27 08:58:20 51°15.809 2°53.644 -999 0.075756 0.412673 4.919521
2009-02-27 08:58:25 51°15.824 2°53.631 -999 0.075756 0.412673 4.919521
2009-02-27 08:58:30 51°15.838 2°53.619 -999 0.075756 0.412688 4.884697
2009-02-27 08:58:36 51°15.855 2°53.603 -999 0.075756 0.412695 4.849873
2009-02-27 08:58:40 51°15.867 2°53.592 -999 0.075756 0.412702 4.849873
2009-02-27 08:58:45 51°15.881 2°53.579 -999 0.075756 0.412702 4.815049
2009-02-27 08:58:50 51°15.895 2°53.565 -999 0.075756 0.41271 4.780225
2009-02-27 08:58:56 51°15.912 2°53.549 -999 0.075756 0.41271 4.780225
2009-02-27 08:59:00 51°15.922 2°53.537 -999 0.075756 0.412724 4.815049
2009-02-27 08:59:05 51°15.936 2°53.524 -999 0.075756 0.412724 4.815049
2009-02-27 08:59:10 51°15.951 2°53.51 -999 0.075756 0.412724 4.815049
2009-02-27 08:59:16 51°15.968 2°53.494 -999 0.075756 0.412724 4.780225
2009-02-27 08:59:20 51°15.979 2°53.483 -999 0.075756 0.412739 4.745401
2009-02-27 08:59:25 51°15.993 2°53.47 -999 0.075756 0.412739 4.745401
2009-02-27 08:59:30 51°16.007 2°53.457 -999 0.075756 0.412739 4.675753
2009-02-27 08:59:35 51°16.022 2°53.444 -999 0.075756 0.412746 4.640929
2009-02-27 08:59:40 51°16.036 2°53.432 -999 0.075756 0.412753 4.606104
2009-02-27 08:59:45 51°16.05 2°53.419 -999 0.075756 0.412753 4.536456
2009-02-27 08:59:50 51°16.065 2°53.406 -999 0.075756 0.412768 4.536456
2009-02-27 08:59:55 51°16.079 2°53.393 -999 0.075756 0.412768 4.536456
2009-02-27 09:00:00 51°16.093 2°53.381 -999 0.075756 0.412768 4.466808
2009-02-27 09:00:05 51°16.108 2°53.368 -999 0.075756 0.412775 4.431984
2009-02-27 09:00:10 51°16.122 2°53.356 -999 0.075756 0.412782 4.431984
2009-02-27 09:00:15 51°16.136 2°53.343 -999 0.075756 0.41279 4.431984
2009-02-27 09:00:20 51°16.151 2°53.331 -999 0.075653 0.412202 4.431984
2009-02-27 09:00:25 51°16.165 2°53.319 -999 0.075653 0.412202 4.431984
2009-02-27 09:00:30 51°16.18 2°53.307 -999 0.075653 0.412217 4.39716
2009-02-27 09:00:36 51°16.197 2°53.292 -999 0.075653 0.412209 4.327512
2009-02-27 09:00:40 51°16.209 2°53.283 -999 0.075756 0.412797 4.362336
2009-02-27 09:00:45 51°16.223 2°53.27 -999 0.075653 0.412224 4.327512
2009-02-27 09:00:50 51°16.238 2°53.258 -999 0.075756 0.412804 4.292688
2009-02-27 09:00:55 51°16.252 2°53.247 -999 0.075756 0.412804 4.292688
2009-02-27 09:01:00 51°16.267 2°53.235 -999 0.075653 0.412224 4.327512
2009-02-27 09:01:05 51°16.281 2°53.223 -999 0.075653 0.412238 4.257864
2009-02-27 09:01:10 51°16.296 2°53.212 -999 0.075653 0.412238 4.292688
2009-02-27 09:01:16 51°16.313 2°53.198 -999 0.075653 0.412246 4.257864
2009-02-27 09:01:20 51°16.325 2°53.19 -999 0.075653 0.412246 4.292688
2009-02-27 09:01:25 51°16.339 2°53.179 -999 0.075653 0.412246 4.292688
2009-02-27 09:01:30 51°16.354 2°53.168 -999 0.075653 0.412253 4.257864
2009-02-27 09:01:35 51°16.369 2°53.158 -999 0.075653 0.41226 4.257864
2009-02-27 09:01:40 51°16.384 2°53.148 -999 0.075653 0.412253 4.257864
2009-02-27 09:01:45 51°16.398 2°53.138 -999 0.075653 0.412267 4.22304
2009-02-27 09:01:50 51°16.413 2°53.128 -999 0.075653 0.41226 4.22304
2009-02-27 09:01:55 51°16.429 2°53.119 -999 0.075653 0.41226 4.22304
2009-02-27 09:02:00 51°16.443 2°53.108 -999 0.075653 0.412282 4.188216
2009-02-27 09:02:05 51°16.458 2°53.098 -999 0.075653 0.412275 4.257864
2009-02-27 09:02:10 51°16.473 2°53.088 -999 0.075653 0.412282 4.292688
2009-02-27 09:02:15 51°16.488 2°53.078 -999 0.075653 0.412282 4.362336
2009-02-27 09:02:20 51°16.503 2°53.068 -999 0.075653 0.412289 4.466808
2009-02-27 09:02:25 51°16.518 2°53.059 -999 0.075653 0.412289 4.466808
2009-02-27 09:02:30 51°16.533 2°53.05 -999 0.075653 0.412296 4.536456
2009-02-27 09:02:36 51°16.551 2°53.038 -999 0.075653 0.412304 4.675753
2009-02-27 09:02:40 51°16.563 2°53.03 -999 0.075653 0.412304 4.745401
2009-02-27 09:02:45 51°16.578 2°53.021 -999 0.075653 0.412304 4.815049
2009-02-27 09:02:50 51°16.593 2°53.011 -999 0.075653 0.412318 4.919521
2009-02-27 09:02:55 51°16.608 2°53.001 -999 0.075653 0.412318 4.919521
2009-02-27 09:03:00 51°16.623 2°52.992 -999 0.075653 0.412318 4.989169
2009-02-27 09:03:05 51°16.638 2°52.981 -999 0.075653 0.412325 4.989169
2009-02-27 09:03:10 51°16.653 2°52.972 -999 0.075653 0.412325 5.093641
2009-02-27 09:03:16 51°16.67 2°52.96 -999 0.075653 0.412325 5.198113
2009-02-27 09:03:20 51°16.682 2°52.952 -999 0.075653 0.412333 5.267761
2009-02-27 09:03:25 51°16.697 2°52.942 -999 0.075653 0.412333 5.267761
2009-02-27 09:03:30 51°16.712 2°52.932 -999 0.075653 0.41234 5.267761
2009-02-27 09:03:36 51°16.729 2°52.919 -999 0.075653 0.41234 5.407058
2009-02-27 09:03:40 51°16.741 2°52.911 -999 0.075653 0.412347 5.51153
2009-02-27 09:03:45 51°16.755 2°52.901 -999 0.075653 0.412347 5.616002
2009-02-27 09:03:50 51°16.77 2°52.891 -999 0.075653 0.412355 5.790122
2009-02-27 09:03:56 51°16.787 2°52.879 -999 0.075653 0.412355 5.790122
2009-02-27 09:04:00 51°16.799 2°52.871 -999 0.075653 0.412355 5.894594
2009-02-27 09:04:05 51°16.813 2°52.861 -999 0.075653 0.412362 5.964243
2009-02-27 09:04:10 51°16.827 2°52.851 -999 0.075653 0.412362 6.068715
2009-02-27 09:04:15 51°16.841 2°52.841 -999 0.075653 0.412376 6.242835
2009-02-27 09:04:20 51°16.855 2°52.831 -999 0.075653 0.412369 6.347307
2009-02-27 09:04:25 51°16.869 2°52.821 -999 0.075653 0.412369 6.347307
2009-02-27 09:04:30 51°16.883 2°52.811 -999 0.075653 0.412384 6.486603
2009-02-27 09:04:35 51°16.897 2°52.8 -999 0.075653 0.412384 6.556251
2009-02-27 09:04:40 51°16.91 2°52.789 -999 0.075653 0.412391 6.556251
2009-02-27 09:04:45 51°16.924 2°52.778 -999 0.075653 0.412398 6.591076
2009-02-27 09:04:50 51°16.938 2°52.768 -999 0.075653 0.412398 6.660724
2009-02-27 09:04:55 51°16.951 2°52.756 -999 0.075653 0.412398 6.660724
2009-02-27 09:05:00 51°16.965 2°52.745 -999 0.075653 0.412398 6.695548
2009-02-27 09:05:05 51°16.979 2°52.734 -999 0.075653 0.412405 6.730372
2009-02-27 09:05:10 51°16.992 2°52.723 -999 0.075653 0.412405 6.730372
2009-02-27 09:05:15 51°17.006 2°52.711 -999 0.075653 0.412413 6.765196
2009-02-27 09:05:20 51°17.019 2°52.701 -999 0.075653 0.41242 6.695548
2009-02-27 09:05:25 51°17.033 2°52.689 -999 0.075653 0.41242 6.695548
2009-02-27 09:05:30 51°17.046 2°52.679 -999 0.075653 0.412427 6.765196
2009-02-27 09:05:36 51°17.063 2°52.665 -999 0.075653 0.412434 6.730372
2009-02-27 09:05:40 51°17.073 2°52.656 -999 0.075653 0.412442 6.730372
2009-02-27 09:05:45 51°17.087 2°52.646 -999 0.075653 0.412442 6.765196
2009-02-27 09:05:50 51°17.1 2°52.635 -999 0.075653 0.412442 6.730372
2009-02-27 09:05:56 51°17.117 2°52.623 -999 0.075653 0.412442 6.730372
2009-02-27 09:06:00 51°17.128 2°52.614 -999 0.075653 0.412442 6.730372
2009-02-27 09:06:05 51°17.141 2°52.605 -999 0.075653 0.412449 6.660724
2009-02-27 09:06:10 51°17.155 2°52.594 -999 0.075653 0.412456 6.591076
2009-02-27 09:06:16 51°17.171 2°52.582 -999 0.075653 0.412463 6.6259
2009-02-27 09:06:20 51°17.182 2°52.574 -999 0.075653 0.412471 6.6259
2009-02-27 09:06:25 51°17.196 2°52.564 -999 0.075653 0.412471 6.6259
2009-02-27 09:06:30 51°17.21 2°52.553 -999 0.075653 0.412463 6.6259
2009-02-27 09:06:35 51°17.223 2°52.543 -999 0.075653 0.412471 6.556251
2009-02-27 09:06:40 51°17.237 2°52.532 -999 0.075653 0.412478 6.521427
2009-02-27 09:06:45 51°17.25 2°52.521 -999 0.075653 0.412478 6.451779
2009-02-27 09:06:50 51°17.264 2°52.511 -999 0.075653 0.412478 6.486603
2009-02-27 09:06:55 51°17.278 2°52.501 -999 0.075653 0.412478 6.486603
2009-02-27 09:07:00 51°17.292 2°52.491 -999 0.075653 0.412492 6.382131
2009-02-27 09:07:05 51°17.306 2°52.482 -999 0.075653 0.412485 6.277659
2009-02-27 09:07:10 51°17.32 2°52.472 -999 0.075653 0.412492 6.277659
2009-02-27 09:07:15 51°17.334 2°52.461 -999 0.075653 0.412507 7.043788
2009-02-27 09:07:20 51°17.348 2°52.451 -999 0.075653 0.412507 6.451779
2009-02-27 09:07:25 51°17.362 2°52.441 -999 0.075653 0.412507 6.451779
2009-02-27 09:07:30 51°17.375 2°52.43 -999 0.075653 0.412514 6.173187
2009-02-27 09:07:36 51°17.392 2°52.417 -999 0.075653 0.412514 6.103539
2009-02-27 09:07:40 51°17.403 2°52.408 -999 0.075653 0.412521 5.999067
2009-02-27 09:07:45 51°17.417 2°52.396 -999 0.075653 0.412514 5.999067
2009-02-27 09:07:50 51°17.43 2°52.385 -999 0.075653 0.412521 5.964243
2009-02-27 09:07:56 51°17.446 2°52.37 -999 0.075653 0.412521 5.964243
2009-02-27 09:08:00 51°17.457 2°52.361 -999 0.075653 0.412529 5.894594
2009-02-27 09:08:05 51°17.471 2°52.349 -999 0.075653 0.412529 5.85977
2009-02-27 09:08:10 51°17.484 2°52.336 -999 0.075653 0.412536 5.824946
2009-02-27 09:08:16 51°17.5 2°52.321 -999 0.075653 0.412536 5.790122
2009-02-27 09:08:20 51°17.511 2°52.311 -999 0.075653 0.412543 5.755298
2009-02-27 09:08:25 51°17.524 2°52.299 -999 0.075653 0.412543 5.755298
2009-02-27 09:08:30 51°17.537 2°52.286 -999 0.075653 0.412543 5.790122
2009-02-27 09:08:36 51°17.553 2°52.269 -999 0.075653 0.412558 5.755298
2009-02-27 09:08:40 51°17.564 2°52.26 -999 0.075653 0.412551 5.720474
2009-02-27 09:08:45 51°17.577 2°52.246 -999 0.075653 0.412558 5.68565
2009-02-27 09:08:50 51°17.59 2°52.233 -999 0.075653 0.412558 5.68565
2009-02-27 09:08:55 51°17.603 2°52.22 -999 0.075653 0.412558 5.68565
2009-02-27 09:09:00 51°17.616 2°52.206 -999 0.075653 0.412565 5.616002
2009-02-27 09:09:05 51°17.629 2°52.193 -999 0.075653 0.412565 5.616002
2009-02-27 09:09:10 51°17.642 2°52.18 -999 0.075653 0.412572 5.581178
2009-02-27 09:09:15 51°17.654 2°52.166 -999 0.075653 0.412572 5.51153
2009-02-27 09:09:20 51°17.668 2°52.153 -999 0.075653 0.41258 5.51153
2009-02-27 09:09:25 51°17.68 2°52.139 -999 0.075653 0.41258 5.51153
2009-02-27 09:09:30 51°17.694 2°52.126 -999 0.075653 0.41258 5.51153
2009-02-27 09:09:35 51°17.706 2°52.113 -999 0.075653 0.412587 5.51153
2009-02-27 09:09:40 51°17.719 2°52.098 -999 0.075653 0.412594 5.476706
2009-02-27 09:09:45 51°17.732 2°52.085 -999 0.075653 0.412594 5.476706
2009-02-27 09:09:50 51°17.745 2°52.07 -999 0.075653 0.412601 5.476706
2009-02-27 09:09:56 51°17.76 2°52.054 -999 0.075653 0.412601 5.476706
2009-02-27 09:10:00 51°17.77 2°52.042 -999 0.075653 0.412601 5.441882
2009-02-27 09:10:05 51°17.782 2°52.027 -999 0.075653 0.412609 5.441882
2009-02-27 09:10:10 51°17.795 2°52.013 -999 0.075653 0.412609 5.476706
2009-02-27 09:10:16 51°17.81 2°51.996 -999 0.075653 0.412609 5.476706
2009-02-27 09:10:20 51°17.82 2°51.985 -999 0.075653 0.412616 5.476706
2009-02-27 09:10:25 51°17.833 2°51.972 -999 0.075653 0.412616 5.476706
2009-02-27 09:10:30 51°17.846 2°51.959 -999 0.075653 0.412616 5.581178
2009-02-27 09:10:36 51°17.862 2°51.942 -999 0.075653 0.412623 5.616002
2009-02-27 09:10:40 51°17.872 2°51.931 -999 0.075653 0.412623 5.616002
2009-02-27 09:10:45 51°17.885 2°51.918 -999 0.075653 0.41263 5.755298
2009-02-27 09:10:50 51°17.898 2°51.904 -999 0.075653 0.412638 5.755298
2009-02-27 09:10:56 51°17.913 2°51.888 -999 0.075653 0.412638 5.755298
2009-02-27 09:11:00 51°17.924 2°51.877 -999 0.075653 0.412638 5.755298
2009-02-27 09:11:05 51°17.937 2°51.864 -999 0.075653 0.412645 5.85977
2009-02-27 09:11:10 51°17.95 2°51.85 -999 0.075653 0.412645 5.85977
2009-02-27 09:11:15 51°17.963 2°51.837 -999 0.075653 0.412652 5.964243
2009-02-27 09:11:20 51°17.976 2°51.823 -999 0.075653 0.412652 5.964243
2009-02-27 09:11:25 51°17.989 2°51.809 -999 0.075653 0.412652 5.964243
2009-02-27 09:11:30 51°18.001 2°51.795 -999 0.075653 0.412652 5.929418
2009-02-27 09:11:35 51°18.014 2°51.782 -999 0.075653 0.41266 5.929418
2009-02-27 09:11:40 51°18.027 2°51.768 -999 0.075653 0.412667 5.964243
2009-02-27 09:11:45 51°18.04 2°51.754 -999 0.075653 0.412667 5.964243
2009-02-27 09:11:50 51°18.053 2°51.739 -999 0.075653 0.412667 5.964243
2009-02-27 09:11:56 51°18.069 2°51.722 -999 0.075653 0.412667 5.964243
2009-02-27 09:12:00 51°18.079 2°51.712 -999 0.075653 0.412674 5.999067
2009-02-27 09:12:05 51°18.092 2°51.698 -999 0.075653 0.412681 5.999067
2009-02-27 09:12:10 51°18.105 2°51.684 -999 0.075653 0.412681 5.999067
2009-02-27 09:12:16 51°18.121 2°51.666 -999 0.075653 0.412689 5.929418
2009-02-27 09:12:20 51°18.131 2°51.655 -999 0.075653 0.412689 5.964243
2009-02-27 09:12:25 51°18.144 2°51.64 -999 0.075653 0.412689 5.964243
2009-02-27 09:12:30 51°18.156 2°51.626 -999 0.075653 0.412689 5.894594
2009-02-27 09:12:36 51°18.171 2°51.607 -999 0.075653 0.412696 5.85977
2009-02-27 09:12:40 51°18.182 2°51.595 -999 0.075653 0.412696 5.824946
2009-02-27 09:12:45 51°18.194 2°51.58 -999 0.075653 0.412703 5.720474
2009-02-27 09:12:50 51°18.207 2°51.565 -999 0.075653 0.412703 5.68565
2009-02-27 09:12:56 51°18.222 2°51.547 -999 0.075653 0.412703 5.68565
2009-02-27 09:13:00 51°18.232 2°51.534 -999 0.075653 0.41271 5.650826
2009-02-27 09:13:05 51°18.245 2°51.519 -999 0.075653 0.41271 5.616002
2009-02-27 09:13:10 51°18.258 2°51.504 -999 0.075653 0.41271 5.546354
2009-02-27 09:13:15 51°18.27 2°51.489 -999 0.075653 0.412718 5.51153
2009-02-27 09:13:20 51°18.283 2°51.474 -999 0.075653 0.412732 5.441882
2009-02-27 09:13:25 51°18.295 2°51.459 -999 0.075653 0.412732 5.441882
2009-02-27 09:13:30 51°18.308 2°51.444 -999 0.075653 0.412725 5.372234
2009-02-27 09:13:35 51°18.321 2°51.428 -999 0.075653 0.412732 5.372234
2009-02-27 09:13:40 51°18.334 2°51.414 -999 0.075653 0.412732 5.302586
2009-02-27 09:13:45 51°18.347 2°51.399 -999 0.075653 0.412739 5.267761
2009-02-27 09:13:50 51°18.359 2°51.384 -999 0.075653 0.412739 5.163289
2009-02-27 09:13:55 51°18.372 2°51.37 -999 0.075653 0.412739 5.163289
2009-02-27 09:14:00 51°18.385 2°51.355 -999 0.075653 0.412747 5.198113
2009-02-27 09:14:05 51°18.398 2°51.34 -999 0.075653 0.412754 5.128465
2009-02-27 09:14:10 51°18.411 2°51.326 -999 0.075653 0.412761 5.093641
2009-02-27 09:14:16 51°18.426 2°51.308 -999 0.075653 0.412754 5.058817
2009-02-27 09:14:20 51°18.437 2°51.296 -999 0.075653 0.412761 5.093641
2009-02-27 09:14:25 51°18.449 2°51.282 -999 0.075653 0.412761 5.093641
2009-02-27 09:14:30 51°18.462 2°51.267 -999 0.075653 0.412761 5.058817
2009-02-27 09:14:36 51°18.478 2°51.249 -999 0.075653 0.412769 5.023993
2009-02-27 09:14:40 51°18.488 2°51.237 -999 0.075653 0.412769 5.023993
2009-02-27 09:14:45 51°18.501 2°51.222 -999 0.075653 0.412769 4.954345
2009-02-27 09:14:50 51°18.514 2°51.207 -999 0.075653 0.412783 4.919521
2009-02-27 09:14:56 51°18.529 2°51.189 -999 0.075653 0.412783 4.919521
2009-02-27 09:15:00 51°18.539 2°51.178 -999 0.075653 0.412783 4.815049
2009-02-27 09:15:05 51°18.551 2°51.165 -999 0.075653 0.41279 4.710577
2009-02-27 09:15:10 51°18.562 2°51.154 -999 0.075653 0.412783 4.606104
2009-02-27 09:15:16 51°18.576 2°51.146 -999 0.075653 0.41279 4.466808
2009-02-27 09:15:20 51°18.584 2°51.144 -999 0.075653 0.41279 4.327512
2009-02-27 09:15:25 51°18.594 2°51.144 -999 0.075653 0.41279 4.327512
2009-02-27 09:15:30 51°18.601 2°51.146 -999 0.075653 0.412812 4.22304
2009-02-27 09:15:35 51°18.608 2°51.15 -999 0.075653 0.412834 4.083744
2009-02-27 09:15:40 51°18.614 2°51.155 -999 0.075653 0.412841 3.944447
2009-02-27 09:15:45 51°18.62 2°51.159 -999 0.075653 0.412856 4.014096
2009-02-27 09:15:50 51°18.626 2°51.164 -999 0.075653 0.41287 4.04892
2009-02-27 09:15:55 51°18.633 2°51.166 -999 0.075653 0.41287 4.04892
2009-02-27 09:16:00 51°18.64 2°51.168 -999 0.075653 0.412878 3.805151
2009-02-27 09:16:05 51°18.648 2°51.168 -999 0.075653 0.412878 3.735503
2009-02-27 09:16:10 51°18.657 2°51.166 -999 0.075653 0.41287 3.665855
2009-02-27 09:16:16 51°18.669 2°51.162 -999 0.075653 0.41287 3.561383
2009-02-27 09:16:20 51°18.677 2°51.158 -999 0.075653 0.41287 3.526559
2009-02-27 09:16:25 51°18.687 2°51.151 -999 0.075653 0.41287 3.526559
2009-02-27 09:16:30 51°18.697 2°51.142 -999 0.075653 0.412892 3.561383
2009-02-27 09:16:36 51°18.71 2°51.129 -999 0.075653 0.4129 3.561383
2009-02-27 09:16:40 51°18.718 2°51.119 -999 0.075653 0.412914 3.596207
2009-02-27 09:16:45 51°18.728 2°51.106 -999 0.075653 0.412907 3.631031
2009-02-27 09:16:50 51°18.739 2°51.094 -999 0.075653 0.412907 3.561383
2009-02-27 09:16:56 51°18.753 2°51.078 -999 0.075653 0.412907 3.561383
2009-02-27 09:17:00 51°18.762 2°51.067 -999 0.075653 0.412907 3.596207
2009-02-27 09:17:05 51°18.773 2°51.054 -999 0.075653 0.412892 3.596207
2009-02-27 09:17:10 51°18.785 2°51.038 -999 0.075653 0.4129 3.561383
2009-02-27 09:17:16 51°18.799 2°51.021 -999 0.075653 0.412885 3.526559
2009-02-27 09:17:20 51°18.808 2°51.009 -999 0.075653 0.412885 3.526559
2009-02-27 09:17:25 51°18.82 2°50.993 -999 0.075653 0.412885 3.526559
2009-02-27 09:17:30 51°18.832 2°50.977 -999 0.075653 0.412885 3.491735
2009-02-27 09:17:36 51°18.846 2°50.958 -999 0.075653 0.412892 3.491735
2009-02-27 09:17:40 51°18.857 2°50.945 -999 0.075653 0.4129 3.387263
2009-02-27 09:17:45 51°18.869 2°50.928 -999 0.075653 0.4129 3.387263
2009-02-27 09:17:50 51°18.882 2°50.912 -999 0.075653 0.412907 3.317614
2009-02-27 09:17:56 51°18.897 2°50.892 -999 0.075653 0.412907 3.317614
2009-02-27 09:18:00 51°18.907 2°50.878 -999 0.075653 0.412907 3.317614
2009-02-27 09:18:05 51°18.919 2°50.861 -999 0.075653 0.412907 3.213142
2009-02-27 09:18:10 51°18.932 2°50.845 -999 0.075653 0.412907 3.213142
2009-02-27 09:18:15 51°18.944 2°50.827 -999 0.075653 0.412914 3.213142
2009-02-27 09:18:20 51°18.957 2°50.811 -999 0.075653 0.412914 3.178318
2009-02-27 09:18:25 51°18.97 2°50.795 -999 0.075653 0.412914 3.178318
2009-02-27 09:18:30 51°18.982 2°50.778 -999 0.075653 0.412929 3.213142
2009-02-27 09:18:36 51°18.997 2°50.758 -999 0.075653 0.412943 3.247966
2009-02-27 09:18:40 51°19.008 2°50.744 -999 0.075653 0.412943 3.247966
2009-02-27 09:18:45 51°19.02 2°50.727 -999 0.075653 0.412943 3.28279
2009-02-27 09:18:50 51°19.033 2°50.71 -999 0.075653 0.41295 3.28279
2009-02-27 09:18:55 51°19.045 2°50.692 -999 0.075653 0.41295 3.28279
2009-02-27 09:19:00 51°19.058 2°50.676 -999 0.075653 0.412943 3.247966
2009-02-27 09:19:05 51°19.07 2°50.658 -999 0.075653 0.412943 3.247966
2009-02-27 09:19:10 51°19.083 2°50.641 -999 0.075653 0.412943 3.28279
2009-02-27 09:19:16 51°19.098 2°50.62 -999 0.075653 0.41295 3.28279
2009-02-27 09:19:20 51°19.108 2°50.606 -999 0.075653 0.41295 3.28279
2009-02-27 09:19:25 51°19.12 2°50.589 -999 0.075653 0.41295 3.28279
2009-02-27 09:19:30 51°19.133 2°50.571 -999 0.075653 0.412943 3.317614
2009-02-27 09:19:36 51°19.148 2°50.551 -999 0.075653 0.41295 3.317614
2009-02-27 09:19:40 51°19.159 2°50.537 -999 0.075653 0.412958 3.352439
2009-02-27 09:19:45 51°19.171 2°50.52 -999 0.075653 0.412965 3.352439
2009-02-27 09:19:50 51°19.184 2°50.504 -999 0.075653 0.41298 3.352439
2009-02-27 09:19:56 51°19.2 2°50.483 -999 0.075653 0.41298 3.352439
2009-02-27 09:20:00 51°19.21 2°50.47 -999 0.075653 0.41298 3.352439
2009-02-27 09:20:05 51°19.222 2°50.452 -999 0.075653 0.41298 3.28279
2009-02-27 09:20:10 51°19.235 2°50.436 -999 0.075653 0.412972 3.317614
2009-02-27 09:20:15 51°19.248 2°50.419 -999 0.075653 0.41298 3.28279
2009-02-27 09:20:20 51°19.261 2°50.403 -999 0.075653 0.41298 3.247966
2009-02-27 09:20:25 51°19.274 2°50.386 -999 0.075653 0.41298 3.247966
2009-02-27 09:20:30 51°19.287 2°50.37 -999 0.075653 0.41298 3.247966
2009-02-27 09:20:36 51°19.302 2°50.35 -999 0.075653 0.41298 3.28279
2009-02-27 09:20:40 51°19.312 2°50.337 -999 0.075653 0.412994 3.317614
2009-02-27 09:20:45 51°19.325 2°50.321 -999 0.075653 0.412994 3.317614
2009-02-27 09:20:50 51°19.338 2°50.304 -999 0.075653 0.413001 3.352439
2009-02-27 09:20:55 51°19.351 2°50.288 -999 0.075653 0.413001 3.352439
2009-02-27 09:21:00 51°19.364 2°50.272 -999 0.075653 0.413001 3.387263
2009-02-27 09:21:05 51°19.377 2°50.256 -999 0.075653 0.413009 3.422087
2009-02-27 09:21:10 51°19.391 2°50.239 -999 0.075653 0.413016 3.456911
2009-02-27 09:21:16 51°19.406 2°50.219 -999 0.075653 0.413016 3.456911
2009-02-27 09:21:20 51°19.417 2°50.206 -999 0.075653 0.413023 3.456911
2009-02-27 09:21:25 51°19.43 2°50.191 -999 0.075653 0.413023 3.456911
2009-02-27 09:21:30 51°19.443 2°50.175 -999 0.075653 0.413023 3.491735
2009-02-27 09:21:36 51°19.459 2°50.156 -999 0.075653 0.413023 3.456911
2009-02-27 09:21:40 51°19.47 2°50.144 -999 0.075653 0.413023 3.491735
2009-02-27 09:21:45 51°19.483 2°50.128 -999 0.075653 0.413038 3.526559
2009-02-27 09:21:50 51°19.497 2°50.112 -999 0.075653 0.413038 3.631031
2009-02-27 09:21:56 51°19.512 2°50.093 -999 0.075653 0.413038 3.631031
2009-02-27 09:22:00 51°19.523 2°50.08 -999 0.075653 0.413038 3.735503
2009-02-27 09:22:05 51°19.536 2°50.064 -999 0.075653 0.413038 3.839975
2009-02-27 09:22:10 51°19.55 2°50.048 -999 0.075653 0.413038 3.909623
2009-02-27 09:22:15 51°19.563 2°50.032 -999 0.075653 0.413045 3.979271
2009-02-27 09:22:20 51°19.576 2°50.016 -999 0.075653 0.413052 4.083744
2009-02-27 09:22:25 51°19.59 2°50 -999 0.075653 0.413052 4.083744
2009-02-27 09:22:30 51°19.603 2°49.984 -999 0.075653 0.41306 4.118568
2009-02-27 09:22:35 51°19.617 2°49.969 -999 0.075653 0.41306 4.153392
2009-02-27 09:22:40 51°19.63 2°49.954 -999 0.075653 0.413067 4.22304
2009-02-27 09:22:45 51°19.644 2°49.938 -999 0.075653 0.413074 4.188216
2009-02-27 09:22:50 51°19.657 2°49.923 -999 0.075653 0.413074 4.188216
2009-02-27 09:22:55 51°19.671 2°49.907 -999 0.075653 0.413074 4.188216
2009-02-27 09:23:00 51°19.685 2°49.892 -999 0.075653 0.413074 4.188216
2009-02-27 09:23:05 51°19.699 2°49.877 -999 0.075653 0.413082 4.257864
2009-02-27 09:23:10 51°19.712 2°49.862 -999 0.075653 0.413082 4.292688
2009-02-27 09:23:15 51°19.726 2°49.847 -999 0.075653 0.413089 4.327512
2009-02-27 09:23:20 51°19.74 2°49.832 -999 0.075653 0.413096 4.362336
2009-02-27 09:23:25 51°19.754 2°49.817 -999 0.075653 0.413096 4.362336
2009-02-27 09:23:30 51°19.768 2°49.802 -999 0.075653 0.413096 4.431984
2009-02-27 09:23:36 51°19.784 2°49.784 -999 0.075653 0.413103 4.466808
2009-02-27 09:23:40 51°19.795 2°49.772 -999 0.075653 0.413103 4.501632
2009-02-27 09:23:45 51°19.809 2°49.756 -999 0.075653 0.413111 4.501632
2009-02-27 09:23:50 51°19.823 2°49.741 -999 0.075653 0.413111 4.466808
2009-02-27 09:23:56 51°19.839 2°49.722 -999 0.075653 0.413111 4.466808
2009-02-27 09:24:00 51°19.851 2°49.71 -999 0.075653 0.413118 4.466808
2009-02-27 09:24:05 51°19.864 2°49.695 -999 0.075653 0.413125 4.431984
2009-02-27 09:24:10 51°19.878 2°49.679 -999 0.075653 0.413125 4.466808
2009-02-27 09:24:16 51°19.895 2°49.661 -999 0.075653 0.413133 4.431984
2009-02-27 09:24:20 51°19.906 2°49.649 -999 0.075653 0.413133 4.431984
2009-02-27 09:24:25 51°19.92 2°49.634 -999 0.075653 0.413133 4.431984
2009-02-27 09:24:30 51°19.934 2°49.619 -999 0.075653 0.41314 4.431984
2009-02-27 09:24:35 51°19.949 2°49.605 -999 0.075653 0.41314 4.431984
2009-02-27 09:24:40 51°19.962 2°49.59 -999 0.075653 0.413154 4.362336
2009-02-27 09:24:45 51°19.977 2°49.575 -999 0.075653 0.413147 4.327512
2009-02-27 09:24:50 51°19.991 2°49.561 -999 0.075653 0.413162 4.292688
2009-02-27 09:24:55 51°20.005 2°49.546 -999 0.075653 0.413162 4.292688
2009-02-27 09:25:00 51°20.019 2°49.532 -999 0.075653 0.413154 4.257864
2009-02-27 09:25:05 51°20.033 2°49.517 -999 0.075653 0.413169 4.22304
2009-02-27 09:25:10 51°20.047 2°49.502 -999 0.075653 0.413169 4.153392
2009-02-27 09:25:15 51°20.061 2°49.488 -999 0.075653 0.413176 4.118568
2009-02-27 09:25:20 51°20.076 2°49.472 -999 0.075653 0.413176 4.04892
2009-02-27 09:25:25 51°20.09 2°49.458 -999 0.075653 0.413176 4.04892
2009-02-27 09:25:30 51°20.104 2°49.442 -999 0.075653 0.413191 3.944447
2009-02-27 09:25:36 51°20.121 2°49.425 -999 0.075653 0.413191 3.909623
2009-02-27 09:25:40 51°20.132 2°49.412 -999 0.075653 0.413191 3.805151
2009-02-27 09:25:45 51°20.146 2°49.398 -999 0.075653 0.413198 3.735503
2009-02-27 09:25:50 51°20.16 2°49.383 -999 0.075653 0.413198 3.631031
2009-02-27 09:25:56 51°20.177 2°49.365 -999 0.075653 0.413198 3.631031
2009-02-27 09:26:00 51°20.188 2°49.353 -999 0.075653 0.41322 3.631031
2009-02-27 09:26:05 51°20.202 2°49.338 -999 0.075653 0.413213 3.491735
2009-02-27 09:26:10 51°20.216 2°49.323 -999 0.075653 0.41322 3.456911
2009-02-27 09:26:16 51°20.232 2°49.305 -999 0.075653 0.41322 3.352439
2009-02-27 09:26:20 51°20.244 2°49.293 -999 0.075653 0.413227 3.247966
2009-02-27 09:26:25 51°20.257 2°49.278 -999 0.075653 0.413227 3.247966
2009-02-27 09:26:30 51°20.271 2°49.263 -999 0.075653 0.413227 3.178318
2009-02-27 09:26:36 51°20.288 2°49.245 -999 0.075653 0.413235 3.143494
2009-02-27 09:26:40 51°20.299 2°49.234 -999 0.075653 0.413242 3.073846
2009-02-27 09:26:45 51°20.313 2°49.219 -999 0.075653 0.413242 3.004198
2009-02-27 09:26:50 51°20.327 2°49.204 -999 0.075653 0.413249 2.93455
2009-02-27 09:26:55 51°20.34 2°49.188 -999 0.075653 0.413249 2.93455
2009-02-27 09:27:00 51°20.355 2°49.173 -999 0.075653 0.413257 2.864902
2009-02-27 09:27:05 51°20.368 2°49.158 -999 0.075653 0.413257 2.864902
2009-02-27 09:27:10 51°20.382 2°49.143 -999 0.075653 0.413257 2.864902
2009-02-27 09:27:15 51°20.396 2°49.128 -999 0.075653 0.413264 2.795254
2009-02-27 09:27:20 51°20.41 2°49.113 -999 0.075653 0.413264 2.76043
2009-02-27 09:27:25 51°20.424 2°49.099 -999 0.075653 0.413264 2.76043
2009-02-27 09:27:30 51°20.438 2°49.084 -999 0.075653 0.413278 2.76043
2009-02-27 09:27:35 51°20.452 2°49.069 -999 0.075653 0.413278 2.76043
2009-02-27 09:27:40 51°20.466 2°49.055 -999 0.075653 0.413278 2.725606
2009-02-27 09:27:45 51°20.481 2°49.041 -999 0.075653 0.413293 2.655957
2009-02-27 09:27:50 51°20.495 2°49.027 -999 0.075653 0.413286 2.655957
2009-02-27 09:27:56 51°20.512 2°49.01 -999 0.075653 0.413286 2.655957
2009-02-27 09:28:00 51°20.524 2°48.999 -999 0.075653 0.4133 2.621133
2009-02-27 09:28:05 51°20.538 2°48.986 -999 0.075653 0.4133 2.551485
2009-02-27 09:28:10 51°20.552 2°48.972 -999 0.075653 0.413308 2.551485
2009-02-27 09:28:16 51°20.57 2°48.956 -999 0.075653 0.413322 2.551485
2009-02-27 09:28:20 51°20.581 2°48.944 -999 0.075653 0.413322 2.551485
2009-02-27 09:28:25 51°20.595 2°48.931 -999 0.075653 0.413322 2.551485
2009-02-27 09:28:30 51°20.61 2°48.918 -999 0.075653 0.413329 2.481837
2009-02-27 09:28:36 51°20.627 2°48.901 -999 0.075653 0.413329 2.447013
2009-02-27 09:28:40 51°20.638 2°48.889 -999 0.075653 0.413337 2.447013
2009-02-27 09:28:45 51°20.653 2°48.876 -999 0.075653 0.413337 2.412189
2009-02-27 09:28:50 51°20.667 2°48.862 -999 0.075653 0.413344 2.412189
2009-02-27 09:28:56 51°20.684 2°48.845 -999 0.075653 0.413344 2.412189
2009-02-27 09:29:00 51°20.696 2°48.833 -999 0.075653 0.413344 2.377365
2009-02-27 09:29:05 51°20.71 2°48.82 -999 0.075653 0.413351 2.377365
2009-02-27 09:29:10 51°20.725 2°48.806 -999 0.075653 0.413359 2.342541
2009-02-27 09:29:15 51°20.739 2°48.792 -999 0.075653 0.413359 2.342541
2009-02-27 09:29:20 51°20.754 2°48.778 -999 0.075653 0.413366 2.342541
2009-02-27 09:29:25 51°20.768 2°48.764 -999 0.075653 0.413366 2.342541
2009-02-27 09:29:30 51°20.782 2°48.75 -999 0.075653 0.413366 2.307717
2009-02-27 09:29:35 51°20.797 2°48.737 -999 0.075653 0.413373 2.307717
2009-02-27 09:29:40 51°20.812 2°48.723 -999 0.075653 0.413373 2.307717
2009-02-27 09:29:45 51°20.826 2°48.709 -999 0.075653 0.413388 2.307717
2009-02-27 09:29:50 51°20.841 2°48.696 -999 0.075653 0.413395 2.272893
2009-02-27 09:29:56 51°20.858 2°48.68 -999 0.075653 0.413395 2.272893
2009-02-27 09:30:00 51°20.87 2°48.669 -999 0.075653 0.413395 2.307717
2009-02-27 09:30:05 51°20.885 2°48.656 -999 0.075653 0.413395 2.307717
2009-02-27 09:30:10 51°20.9 2°48.644 -999 0.075653 0.413395 2.272893
2009-02-27 09:30:16 51°20.917 2°48.629 -999 0.075653 0.413402 2.307717
2009-02-27 09:30:20 51°20.929 2°48.62 -999 0.075653 0.41341 2.307717
2009-02-27 09:30:25 51°20.944 2°48.608 -999 0.075653 0.41341 2.307717
2009-02-27 09:30:30 51°20.959 2°48.596 -999 0.075653 0.41341 2.342541
2009-02-27 09:30:36 51°20.977 2°48.582 -999 0.075653 0.413417 2.342541
2009-02-27 09:30:40 51°20.989 2°48.573 -999 0.075653 0.413432 2.342541
2009-02-27 09:30:45 51°21.004 2°48.561 -999 0.075653 0.413432 2.342541
2009-02-27 09:30:50 51°21.019 2°48.549 -999 0.075653 0.413432 2.342541
2009-02-27 09:30:56 51°21.037 2°48.535 -999 0.075653 0.413432 2.342541
2009-02-27 09:31:00 51°21.05 2°48.526 -999 0.075653 0.413439 2.342541
2009-02-27 09:31:05 51°21.065 2°48.514 -999 0.075653 0.413439 2.377365
2009-02-27 09:31:10 51°21.08 2°48.502 -999 0.075653 0.413446 2.412189
2009-02-27 09:31:15 51°21.095 2°48.491 -999 0.075653 0.413461 2.412189
2009-02-27 09:31:20 51°21.11 2°48.479 -999 0.075653 0.413454 2.481837
2009-02-27 09:31:25 51°21.125 2°48.468 -999 0.075653 0.413454 2.481837
2009-02-27 09:31:30 51°21.14 2°48.456 -999 0.075653 0.413461 2.481837
2009-02-27 09:31:36 51°21.158 2°48.442 -999 0.075653 0.413468 2.516661
2009-02-27 09:31:40 51°21.17 2°48.433 -999 0.075653 0.413475 2.516661
2009-02-27 09:31:45 51°21.185 2°48.421 -999 0.075653 0.413468 2.586309
2009-02-27 09:31:50 51°21.2 2°48.41 -999 0.075653 0.413483 2.586309
2009-02-27 09:31:55 51°21.215 2°48.397 -999 0.075653 0.413483 2.586309
2009-02-27 09:32:00 51°21.23 2°48.385 -999 0.075653 0.413483 2.621133
2009-02-27 09:32:05 51°21.245 2°48.373 -999 0.075653 0.413483 2.655957
2009-02-27 09:32:10 51°21.26 2°48.36 -999 0.075653 0.413497 2.690782
2009-02-27 09:32:16 51°21.278 2°48.346 -999 0.075653 0.413497 2.76043
2009-02-27 09:32:20 51°21.29 2°48.336 -999 0.075653 0.413505 2.725606
2009-02-27 09:32:25 51°21.306 2°48.325 -999 0.075653 0.413505 2.725606
2009-02-27 09:32:30 51°21.32 2°48.312 -999 0.075653 0.413512 2.795254
2009-02-27 09:32:36 51°21.339 2°48.297 -999 0.075653 0.413512 2.795254
2009-02-27 09:32:40 51°21.35 2°48.287 -999 0.075653 0.413519 2.795254
2009-02-27 09:32:45 51°21.365 2°48.275 -999 0.075653 0.413519 2.864902
2009-02-27 09:32:50 51°21.381 2°48.263 -999 0.075653 0.413527 2.864902
2009-02-27 09:32:56 51°21.398 2°48.248 -999 0.075653 0.413527 2.864902
2009-02-27 09:33:00 51°21.41 2°48.238 -999 0.075653 0.413534 2.899726
2009-02-27 09:33:05 51°21.425 2°48.226 -999 0.075653 0.413541 2.899726
2009-02-27 09:33:10 51°21.44 2°48.212 -999 0.075653 0.413541 2.899726
2009-02-27 09:33:16 51°21.458 2°48.197 -999 0.075653 0.413548 2.899726
2009-02-27 09:33:20 51°21.47 2°48.187 -999 0.075653 0.413548 2.93455
2009-02-27 09:33:25 51°21.485 2°48.174 -999 0.075653 0.413548 2.93455
2009-02-27 09:33:30 51°21.5 2°48.162 -999 0.075653 0.413556 2.93455
2009-02-27 09:33:36 51°21.517 2°48.147 -999 0.075653 0.413563 2.969374
2009-02-27 09:33:40 51°21.529 2°48.136 -999 0.075653 0.41357 2.969374
2009-02-27 09:33:45 51°21.544 2°48.125 -999 0.075653 0.413578 3.039022
2009-02-27 09:33:50 51°21.558 2°48.111 -999 0.075653 0.413563 3.039022
2009-02-27 09:33:55 51°21.574 2°48.1 -999 0.075653 0.413563 3.039022
2009-02-27 09:34:00 51°21.588 2°48.085 -999 0.075653 0.413592 3.039022
2009-02-27 09:34:05 51°21.603 2°48.075 -999 0.075653 0.41357 3.039022
2009-02-27 09:34:10 51°21.617 2°48.06 -999 0.075653 0.4136 3.039022
2009-02-27 09:34:16 51°21.635 2°48.046 -999 0.075653 0.413556 3.039022
2009-02-27 09:34:20 51°21.647 2°48.034 -999 0.075653 0.413548 3.004198
2009-02-27 09:34:25 51°21.661 2°48.022 -999 0.075653 0.413548 3.004198
2009-02-27 09:34:30 51°21.676 2°48.009 -999 0.075653 0.413534 3.004198
2009-02-27 09:34:36 51°21.694 2°47.993 -999 0.075653 0.413541 2.969374
2009-02-27 09:34:40 51°21.706 2°47.983 -999 0.075653 0.413556 3.004198
2009-02-27 09:34:45 51°21.72 2°47.97 -999 0.075653 0.413578 3.073846
2009-02-27 09:34:50 51°21.735 2°47.958 -999 0.075653 0.413607 3.073846
2009-02-27 09:34:55 51°21.75 2°47.945 -999 0.075653 0.413607 3.073846
2009-02-27 09:35:00 51°21.765 2°47.932 -999 0.075653 0.413636 3.073846
2009-02-27 09:35:05 51°21.78 2°47.919 -999 0.075653 0.413658 3.143494
2009-02-27 09:35:10 51°21.795 2°47.906 -999 0.075653 0.413665 3.178318
2009-02-27 09:35:16 51°21.813 2°47.891 -999 0.075653 0.413658 3.28279
2009-02-27 09:35:20 51°21.825 2°47.881 -999 0.075653 0.413658 3.28279
2009-02-27 09:35:25 51°21.84 2°47.868 -999 0.075653 0.413658 3.28279
2009-02-27 09:35:30 51°21.855 2°47.856 -999 0.075653 0.413643 3.387263
2009-02-27 09:35:36 51°21.873 2°47.841 -999 0.075653 0.413643 3.422087
2009-02-27 09:35:40 51°21.885 2°47.831 -999 0.075653 0.413636 3.561383
2009-02-27 09:35:45 51°21.9 2°47.819 -999 0.075653 0.413629 3.631031
2009-02-27 09:35:50 51°21.915 2°47.807 -999 0.075653 0.413629 3.631031
2009-02-27 09:35:56 51°21.933 2°47.792 -999 0.075653 0.413629 3.631031
2009-02-27 09:36:00 51°21.945 2°47.782 -999 0.075653 0.413629 3.596207
2009-02-27 09:36:05 51°21.96 2°47.77 -999 0.075653 0.413636 3.700679
2009-02-27 09:36:10 51°21.976 2°47.758 -999 0.075653 0.413643 3.700679
2009-02-27 09:36:15 51°21.991 2°47.745 -999 0.075653 0.413658 3.700679
2009-02-27 09:36:20 51°22.006 2°47.733 -999 0.075653 0.413665 3.700679
2009-02-27 09:36:25 51°22.021 2°47.72 -999 0.075653 0.413665 3.700679
2009-02-27 09:36:30 51°22.035 2°47.707 -999 0.075653 0.41368 3.735503
2009-02-27 09:36:36 51°22.054 2°47.693 -999 0.075653 0.41368 3.700679
2009-02-27 09:36:40 51°22.066 2°47.684 -999 0.075653 0.413687 3.700679
2009-02-27 09:36:45 51°22.081 2°47.672 -999 0.075653 0.413687 3.735503
2009-02-27 09:36:50 51°22.096 2°47.66 -999 0.075653 0.413695 3.770327
2009-02-27 09:36:55 51°22.11 2°47.649 -999 0.075653 0.413695 3.770327
2009-02-27 09:37:00 51°22.125 2°47.637 -999 0.075653 0.413695 3.770327
2009-02-27 09:37:05 51°22.14 2°47.625 -999 0.075653 0.413702 3.770327
2009-02-27 09:37:10 51°22.155 2°47.613 -999 0.075653 0.413695 3.805151
2009-02-27 09:37:16 51°22.172 2°47.599 -999 0.075756 0.414284 3.805151
2009-02-27 09:37:20 51°22.184 2°47.59 -999 0.075653 0.413709 3.805151
2009-02-27 09:37:25 51°22.198 2°47.578 -999 0.075653 0.413709 3.805151
2009-02-27 09:37:31 51°22.216 2°47.564 -999 0.075653 0.413717 3.839975
2009-02-27 09:37:36 51°22.231 2°47.553 -999 0.075653 0.413724 3.979271
2009-02-27 09:37:40 51°22.242 2°47.543 -999 0.075653 0.413731 3.944447
2009-02-27 09:37:45 51°22.257 2°47.532 -999 0.075653 0.413731 3.735503
2009-02-27 09:37:50 51°22.272 2°47.52 -999 0.075653 0.413739 3.770327
2009-02-27 09:37:56 51°22.289 2°47.506 -999 0.075653 0.413739 3.770327
2009-02-27 09:38:00 51°22.301 2°47.498 -999 0.075653 0.413746 3.805151
2009-02-27 09:38:05 51°22.315 2°47.486 -999 0.075653 0.413753 3.874799
2009-02-27 09:38:10 51°22.33 2°47.475 -999 0.075653 0.41376 4.04892
2009-02-27 09:38:16 51°22.347 2°47.46 -999 0.075653 0.41376 4.153392
2009-02-27 09:38:20 51°22.359 2°47.451 -999 0.075653 0.413775 4.257864
2009-02-27 09:38:25 51°22.373 2°47.439 -999 0.075653 0.413775 4.257864
2009-02-27 09:38:30 51°22.388 2°47.428 -999 0.075653 0.413768 4.39716
2009-02-27 09:38:36 51°22.405 2°47.414 -999 0.075653 0.413775 4.501632
2009-02-27 09:38:40 51°22.416 2°47.404 -999 0.075653 0.413782 4.640929
2009-02-27 09:38:45 51°22.43 2°47.392 -999 0.075653 0.413797 4.745401
2009-02-27 09:38:50 51°22.444 2°47.379 -999 0.075653 0.41379 4.815049
2009-02-27 09:38:55 51°22.458 2°47.368 -999 0.075653 0.41379 4.815049
2009-02-27 09:39:00 51°22.472 2°47.356 -999 0.075653 0.413797 4.919521
2009-02-27 09:39:05 51°22.486 2°47.345 -999 0.075653 0.413804 5.023993
2009-02-27 09:39:10 51°22.5 2°47.334 -999 0.075653 0.413812 5.093641
2009-02-27 09:39:15 51°22.514 2°47.323 -999 0.075653 0.413819 5.093641
2009-02-27 09:39:20 51°22.529 2°47.311 -999 0.075653 0.413826 5.128465
2009-02-27 09:39:25 51°22.543 2°47.299 -999 0.075653 0.413826 5.128465
2009-02-27 09:39:30 51°22.557 2°47.287 -999 0.075653 0.413826 5.163289
2009-02-27 09:39:36 51°22.574 2°47.274 -999 0.075653 0.413819 5.232937
2009-02-27 09:39:40 51°22.586 2°47.264 -999 0.075653 0.413834 5.267761
2009-02-27 09:39:45 51°22.6 2°47.253 -999 0.075653 0.413826 5.267761
2009-02-27 09:39:50 51°22.614 2°47.241 -999 0.075653 0.413841 5.302586
2009-02-27 09:39:56 51°22.631 2°47.226 -999 0.075653 0.413841 5.302586
2009-02-27 09:40:00 51°22.643 2°47.216 -999 0.075653 0.413848 5.372234
2009-02-27 09:40:05 51°22.657 2°47.203 -999 0.075653 0.413856 5.372234
2009-02-27 09:40:10 51°22.671 2°47.19 -999 0.075653 0.413856 5.33741
2009-02-27 09:40:16 51°22.687 2°47.175 -999 0.075653 0.413863 5.407058
2009-02-27 09:40:20 51°22.699 2°47.164 -999 0.075653 0.413878 5.407058
2009-02-27 09:40:25 51°22.712 2°47.151 -999 0.075653 0.413878 5.407058
2009-02-27 09:40:30 51°22.726 2°47.138 -999 0.075653 0.41387 5.372234
2009-02-27 09:40:35 51°22.74 2°47.125 -999 0.075653 0.41387 5.372234
2009-02-27 09:40:40 51°22.754 2°47.112 -999 0.075653 0.413878 5.407058
2009-02-27 09:40:45 51°22.768 2°47.099 -999 0.075653 0.413885 5.407058
2009-02-27 09:40:50 51°22.782 2°47.086 -999 0.075653 0.413878 5.33741
2009-02-27 09:40:55 51°22.796 2°47.074 -999 0.075653 0.413878 5.33741
2009-02-27 09:41:00 51°22.81 2°47.062 -999 0.075653 0.413892 5.267761
2009-02-27 09:41:05 51°22.825 2°47.05 -999 0.075653 0.413892 5.302586
2009-02-27 09:41:10 51°22.839 2°47.037 -999 0.075653 0.413907 5.33741
2009-02-27 09:41:15 51°22.853 2°47.026 -999 0.075653 0.413899 5.302586
2009-02-27 09:41:20 51°22.867 2°47.014 -999 0.075653 0.413914 5.33741
2009-02-27 09:41:25 51°22.882 2°47.001 -999 0.075653 0.413914 5.33741
2009-02-27 09:41:30 51°22.896 2°46.989 -999 0.075653 0.413914 5.372234
2009-02-27 09:41:36 51°22.913 2°46.975 -999 0.075653 0.413921 5.302586
2009-02-27 09:41:40 51°22.924 2°46.964 -999 0.075653 0.413929 5.372234
2009-02-27 09:41:45 51°22.939 2°46.952 -999 0.075653 0.413929 5.372234
2009-02-27 09:41:50 51°22.953 2°46.939 -999 0.075653 0.413929 5.372234
2009-02-27 09:41:56 51°22.97 2°46.924 -999 0.075653 0.413929 5.372234
2009-02-27 09:42:00 51°22.982 2°46.914 -999 0.075653 0.413936 5.407058
2009-02-27 09:42:05 51°22.996 2°46.901 -999 0.075653 0.413936 5.476706
2009-02-27 09:42:10 51°23.01 2°46.888 -999 0.075653 0.413943 5.407058
2009-02-27 09:42:16 51°23.027 2°46.873 -999 0.075653 0.413951 5.441882
2009-02-27 09:42:20 51°23.038 2°46.862 -999 0.075653 0.413958 5.441882
2009-02-27 09:42:25 51°23.052 2°46.85 -999 0.075653 0.413958 5.441882
2009-02-27 09:42:30 51°23.066 2°46.836 -999 0.075653 0.413958 5.407058
2009-02-27 09:42:36 51°23.084 2°46.821 -999 0.075653 0.413958 5.441882
2009-02-27 09:42:40 51°23.095 2°46.812 -999 0.075653 0.413965 6.208011
2009-02-27 09:42:45 51°23.109 2°46.799 -999 0.075653 0.413973 7.775093
2009-02-27 09:42:50 51°23.123 2°46.786 -999 0.075653 0.413973 6.869668
2009-02-27 09:42:56 51°23.14 2°46.77 -999 0.075653 0.413973 6.869668
2009-02-27 09:43:00 51°23.152 2°46.761 -999 0.075653 0.41398 6.591076
2009-02-27 09:43:05 51°23.166 2°46.748 -999 0.075653 0.413987 6.6259
2009-02-27 09:43:10 51°23.18 2°46.736 -999 0.075653 0.413987 6.486603
2009-02-27 09:43:15 51°23.195 2°46.725 -999 0.075653 0.413987 5.755298
2009-02-27 09:43:20 51°23.209 2°46.713 -999 0.075653 0.414002 5.372234
2009-02-27 09:43:25 51°23.223 2°46.7 -999 0.075653 0.414002 5.372234
2009-02-27 09:43:30 51°23.237 2°46.686 -999 0.075653 0.414009 5.302586
2009-02-27 09:43:35 51°23.25 2°46.67 -999 0.075653 0.414017 5.302586
2009-02-27 09:43:40 51°23.263 2°46.654 -999 0.075653 0.414017 5.232937
2009-02-27 09:43:45 51°23.275 2°46.637 -999 0.075653 0.414031 5.128465
2009-02-27 09:43:50 51°23.288 2°46.62 -999 0.075653 0.414031 5.128465
2009-02-27 09:43:56 51°23.301 2°46.597 -999 0.075653 0.414031 5.128465
2009-02-27 09:44:00 51°23.311 2°46.582 -999 0.075653 0.414031 5.128465
2009-02-27 09:44:05 51°23.322 2°46.562 -999 0.075653 0.414039 5.058817
2009-02-27 09:44:10 51°23.334 2°46.542 -999 0.075653 0.414039 5.058817
2009-02-27 09:44:16 51°23.347 2°46.518 -999 0.075653 0.414039 5.058817
2009-02-27 09:44:20 51°23.356 2°46.502 -999 0.075653 0.414053 5.093641
2009-02-27 09:44:25 51°23.366 2°46.48 -999 0.075653 0.414053 5.093641
2009-02-27 09:44:30 51°23.377 2°46.459 -999 0.075653 0.414046 5.163289
2009-02-27 09:44:36 51°23.389 2°46.432 -999 0.075653 0.414061 5.093641
2009-02-27 09:44:40 51°23.398 2°46.415 -999 0.075653 0.414053 5.058817
2009-02-27 09:44:45 51°23.408 2°46.393 -999 0.075653 0.414061 5.058817
2009-02-27 09:44:50 51°23.418 2°46.371 -999 0.075653 0.414061 5.058817
2009-02-27 09:44:56 51°23.429 2°46.343 -999 0.075653 0.414061 5.058817
2009-02-27 09:45:00 51°23.437 2°46.325 -999 0.075653 0.414075 5.093641
2009-02-27 09:45:05 51°23.446 2°46.301 -999 0.075653 0.414075 5.058817
2009-02-27 09:45:10 51°23.455 2°46.277 -999 0.075653 0.414075 4.989169
2009-02-27 09:45:15 51°23.464 2°46.254 -999 0.075653 0.414068 5.023993
2009-02-27 09:45:20 51°23.472 2°46.23 -999 0.075653 0.414097 5.023993
2009-02-27 09:45:25 51°23.48 2°46.204 -999 0.075653 0.414097 5.023993
2009-02-27 09:45:30 51°23.488 2°46.18 -999 0.075653 0.414075 4.989169
2009-02-27 09:45:35 51°23.495 2°46.154 -999 0.075653 0.414105 5.51153
2009-02-27 09:45:40 51°23.502 2°46.128 -999 0.075653 0.414097 6.347307
2009-02-27 09:45:45 51°23.509 2°46.102 -999 0.075653 0.414105 6.660724
2009-02-27 09:45:50 51°23.516 2°46.075 -999 0.075653 0.414105 6.486603
2009-02-27 09:45:56 51°23.523 2°46.043 -999 0.075653 0.414105 6.486603
2009-02-27 09:46:00 51°23.528 2°46.022 -999 0.075653 0.414112 6.347307
2009-02-27 09:46:05 51°23.535 2°45.995 -999 0.075653 0.414105 6.208011
2009-02-27 09:46:10 51°23.541 2°45.968 -999 0.075653 0.414112 6.103539
2009-02-27 09:46:16 51°23.548 2°45.936 -999 0.075653 0.414119 5.964243
2009-02-27 09:46:20 51°23.553 2°45.915 -999 0.075653 0.414112 5.824946
2009-02-27 09:46:25 51°23.56 2°45.888 -999 0.075653 0.414112 5.824946
2009-02-27 09:46:30 51°23.566 2°45.861 -999 0.075653 0.414119 5.790122
2009-02-27 09:46:36 51°23.574 2°45.828 -999 0.075653 0.414119 5.824946
2009-02-27 09:46:40 51°23.579 2°45.807 -999 0.075653 0.414127 5.894594
2009-02-27 09:46:45 51°23.585 2°45.78 -999 0.075653 0.414134 5.85977
2009-02-27 09:46:51 51°23.594 2°45.748 -999 0.075653 0.414134 5.85977
2009-02-27 09:46:56 51°23.6 2°45.721 -999 0.075653 0.414134 5.85977
2009-02-27 09:47:00 51°23.605 2°45.7 -999 0.075653 0.414141 5.894594
2009-02-27 09:47:05 51°23.612 2°45.674 -999 0.075653 0.414141 5.85977
2009-02-27 09:47:10 51°23.619 2°45.648 -999 0.075653 0.414156 5.964243
2009-02-27 09:47:15 51°23.627 2°45.621 -999 0.075653 0.414149 5.964243
2009-02-27 09:47:20 51°23.635 2°45.596 -999 0.075653 0.414163 6.033891
2009-02-27 09:47:25 51°23.642 2°45.571 -999 0.075653 0.414163 6.033891
2009-02-27 09:47:30 51°23.651 2°45.546 -999 0.075653 0.414156 6.103539
2009-02-27 09:47:36 51°23.661 2°45.517 -999 0.075653 0.414171 6.138363
2009-02-27 09:47:40 51°23.669 2°45.498 -999 0.075653 0.414171 6.208011
2009-02-27 09:47:45 51°23.678 2°45.474 -999 0.075653 0.414178 6.173187
2009-02-27 09:47:50 51°23.688 2°45.451 -999 0.075653 0.414178 6.103539
2009-02-27 09:47:56 51°23.7 2°45.423 -999 0.075653 0.414178 6.103539
2009-02-27 09:48:00 51°23.708 2°45.405 -999 0.075653 0.414185 6.208011
2009-02-27 09:48:05 51°23.719 2°45.384 -999 0.075653 0.414178 6.173187
2009-02-27 09:48:10 51°23.73 2°45.362 -999 0.075653 0.414193 6.103539
2009-02-27 09:48:16 51°23.744 2°45.339 -999 0.075653 0.414185 6.138363
2009-02-27 09:48:20 51°23.753 2°45.322 -999 0.075653 0.414193 6.208011
2009-02-27 09:48:25 51°23.766 2°45.304 -999 0.075653 0.414193 6.208011
2009-02-27 09:48:30 51°23.778 2°45.287 -999 0.075653 0.414193 6.242835
2009-02-27 09:48:36 51°23.794 2°45.266 -999 0.075653 0.4142 6.242835
2009-02-27 09:48:40 51°23.805 2°45.256 -999 0.075653 0.4142 6.208011
2009-02-27 09:48:45 51°23.819 2°45.243 -999 0.075653 0.4142 6.277659
2009-02-27 09:48:50 51°23.834 2°45.233 -999 0.075653 0.414229 6.242835
2009-02-27 09:48:56 51°23.851 2°45.22 -999 0.075653 0.414229 6.242835
2009-02-27 09:49:00 51°23.863 2°45.215 -999 0.075653 0.414222 6.103539
2009-02-27 09:49:05 51°23.878 2°45.205 -999 0.075653 0.414237 6.138363
2009-02-27 09:49:10 51°23.893 2°45.201 -999 0.075653 0.414229 6.173187
2009-02-27 09:49:16 51°23.911 2°45.192 -999 0.075653 0.414244 6.033891
2009-02-27 09:49:20 51°23.923 2°45.19 -999 0.075653 0.414244 6.033891
2009-02-27 09:49:25 51°23.938 2°45.186 -999 0.075653 0.414244 6.033891
2009-02-27 09:49:30 51°23.953 2°45.185 -999 0.075653 0.414251 5.999067
2009-02-27 09:49:36 51°23.972 2°45.185 -999 0.075653 0.414244 5.929418
2009-02-27 09:49:40 51°23.984 2°45.185 -999 0.075653 0.414251 5.755298
2009-02-27 09:49:45 51°23.998 2°45.189 -999 0.075653 0.414251 5.581178
2009-02-27 09:49:50 51°24.014 2°45.189 -999 0.075653 0.414266 5.51153
2009-02-27 09:49:55 51°24.028 2°45.194 -999 0.075653 0.414266 5.51153
2009-02-27 09:50:00 51°24.043 2°45.199 -999 0.075653 0.414251 5.407058
2009-02-27 09:50:05 51°24.057 2°45.202 -999 0.075653 0.414273 5.372234
2009-02-27 09:50:10 51°24.071 2°45.21 -999 0.075653 0.414251 5.407058
2009-02-27 09:50:16 51°24.089 2°45.215 -999 0.075653 0.414273 5.407058
2009-02-27 09:50:20 51°24.1 2°45.223 -999 0.075653 0.414259 5.441882
2009-02-27 09:50:25 51°24.113 2°45.231 -999 0.075653 0.414259 5.441882
2009-02-27 09:50:30 51°24.127 2°45.239 -999 0.075653 0.414273 5.407058
2009-02-27 09:50:36 51°24.142 2°45.252 -999 0.075653 0.414266 5.51153
2009-02-27 09:50:40 51°24.153 2°45.26 -999 0.075653 0.414273 5.546354
2009-02-27 09:50:45 51°24.165 2°45.272 -999 0.075653 0.414281 5.616002
2009-02-27 09:50:50 51°24.178 2°45.284 -999 0.075653 0.414288 5.581178
2009-02-27 09:50:56 51°24.193 2°45.298 -999 0.075653 0.414288 5.581178
2009-02-27 09:51:00 51°24.203 2°45.308 -999 0.075653 0.414288 5.546354
2009-02-27 09:51:05 51°24.215 2°45.321 -999 0.075653 0.414295 5.68565
2009-02-27 09:51:11 51°24.229 2°45.337 -999 0.075653 0.414288 5.650826
2009-02-27 09:51:16 51°24.241 2°45.351 -999 0.075653 0.414303 5.51153
2009-02-27 09:51:20 51°24.25 2°45.361 -999 0.075653 0.414281 5.372234
2009-02-27 09:51:25 51°24.261 2°45.377 -999 0.075653 0.414281 5.372234
2009-02-27 09:51:30 51°24.273 2°45.39 -999 0.075653 0.41431 5.267761
2009-02-27 09:51:36 51°24.285 2°45.409 -999 0.075653 0.414303 5.198113
2009-02-27 09:51:40 51°24.295 2°45.419 -999 0.075653 0.414325 5.33741
2009-02-27 09:51:45 51°24.305 2°45.436 -999 0.075653 0.414317 5.616002
2009-02-27 09:51:50 51°24.317 2°45.449 -999 0.075653 0.414332 5.616002
2009-02-27 09:51:55 51°24.327 2°45.465 -999 0.075653 0.414332 5.616002
2009-02-27 09:52:00 51°24.338 2°45.481 -999 0.075653 0.414347 5.476706
2009-02-27 09:52:05 51°24.349 2°45.496 -999 0.075653 0.414347 5.267761
2009-02-27 09:52:10 51°24.359 2°45.513 -999 0.075653 0.414354 5.232937
2009-02-27 09:52:16 51°24.371 2°45.533 -999 0.075653 0.414354 5.232937
2009-02-27 09:52:20 51°24.379 2°45.546 -999 0.075653 0.414339 5.267761
2009-02-27 09:52:25 51°24.388 2°45.564 -999 0.075653 0.414339 5.267761
2009-02-27 09:52:30 51°24.398 2°45.58 -999 0.075653 0.414354 5.128465
2009-02-27 09:52:36 51°24.409 2°45.602 -999 0.075653 0.414347 5.023993
2009-02-27 09:52:40 51°24.417 2°45.615 -999 0.075653 0.414347 4.919521
2009-02-27 09:52:45 51°24.426 2°45.633 -999 0.075653 0.414347 4.919521
2009-02-27 09:52:50 51°24.436 2°45.65 -999 0.075653 0.414339 4.989169
2009-02-27 09:52:55 51°24.444 2°45.669 -999 0.075653 0.414339 4.989169
2009-02-27 09:53:00 51°24.454 2°45.686 -999 0.075653 0.414354 4.954345
2009-02-27 09:53:05 51°24.462 2°45.706 -999 0.075653 0.414347 5.023993
2009-02-27 09:53:10 51°24.471 2°45.723 -999 0.075653 0.414361 5.023993
2009-02-27 09:53:16 51°24.482 2°45.747 -999 0.075653 0.414376 5.163289
2009-02-27 09:53:20 51°24.489 2°45.761 -999 0.075653 0.414369 5.163289
2009-02-27 09:53:25 51°24.497 2°45.78 -999 0.075653 0.414369 5.163289
2009-02-27 09:53:31 51°24.507 2°45.804 -999 0.075653 0.414383 5.128465
2009-02-27 09:53:36 51°24.515 2°45.822 -999 0.075653 0.414383 5.267761
2009-02-27 09:53:40 51°24.522 2°45.837 -999 0.075653 0.414383 5.232937
2009-02-27 09:53:45 51°24.529 2°45.857 -999 0.075653 0.414391 5.163289
2009-02-27 09:53:50 51°24.539 2°45.875 -999 0.075653 0.414398 5.198113
2009-02-27 09:53:56 51°24.548 2°45.899 -999 0.075653 0.414398 5.198113
2009-02-27 09:54:00 51°24.555 2°45.914 -999 0.075653 0.414391 5.232937
2009-02-27 09:54:05 51°24.563 2°45.933 -999 0.075653 0.414391 5.232937
2009-02-27 09:54:10 51°24.571 2°45.951 -999 0.075653 0.414398 5.232937
2009-02-27 09:54:16 51°24.581 2°45.975 -999 0.075653 0.414398 5.163289
2009-02-27 09:54:20 51°24.587 2°45.991 -999 0.075653 0.414405 5.232937
2009-02-27 09:54:25 51°24.595 2°46.011 -999 0.075653 0.414405 5.232937
2009-02-27 09:54:30 51°24.603 2°46.031 -999 0.075653 0.414413 5.267761
2009-02-27 09:54:36 51°24.612 2°46.055 -999 0.075653 0.414413 5.267761
2009-02-27 09:54:40 51°24.619 2°46.07 -999 0.075653 0.414427 5.198113
2009-02-27 09:54:45 51°24.627 2°46.089 -999 0.075653 0.41442 5.093641
2009-02-27 09:54:50 51°24.635 2°46.108 -999 0.075653 0.414435 5.093641
2009-02-27 09:54:55 51°24.644 2°46.127 -999 0.075653 0.414435 5.093641
2009-02-27 09:55:00 51°24.652 2°46.146 -999 0.075653 0.41442 5.023993
2009-02-27 09:55:05 51°24.66 2°46.166 -999 0.075653 0.414435 5.023993
2009-02-27 09:55:10 51°24.669 2°46.185 -999 0.075653 0.414435 5.163289
2009-02-27 09:55:16 51°24.678 2°46.208 -999 0.075653 0.414427 5.093641
2009-02-27 09:55:20 51°24.685 2°46.223 -999 0.075653 0.414442 5.023993
2009-02-27 09:55:25 51°24.693 2°46.242 -999 0.075653 0.414442 5.023993
2009-02-27 09:55:31 51°24.703 2°46.266 -999 0.075653 0.414442 4.884697
2009-02-27 09:55:36 51°24.712 2°46.284 -999 0.075653 0.414457 4.710577
2009-02-27 09:55:40 51°24.718 2°46.299 -999 0.075653 0.414442 4.675753
2009-02-27 09:55:45 51°24.726 2°46.319 -999 0.075653 0.414457 4.640929
2009-02-27 09:55:50 51°24.735 2°46.338 -999 0.075653 0.414464 4.780225
2009-02-27 09:55:56 51°24.746 2°46.359 -999 0.075653 0.414464 4.780225
2009-02-27 09:56:00 51°24.752 2°46.375 -999 0.075653 0.414464 4.780225
2009-02-27 09:56:05 51°24.761 2°46.393 -999 0.075653 0.414479 4.780225
2009-02-27 09:56:11 51°24.77 2°46.417 -999 0.075653 0.414471 4.780225
2009-02-27 09:56:16 51°24.779 2°46.436 -999 0.075653 0.414479 4.745401
2009-02-27 09:56:20 51°24.786 2°46.451 -999 0.075653 0.414479 4.745401
2009-02-27 09:56:25 51°24.794 2°46.47 -999 0.075653 0.414479 4.745401
2009-02-27 09:56:30 51°24.803 2°46.488 -999 0.075653 0.414493 4.675753
2009-02-27 09:56:36 51°24.813 2°46.512 -999 0.075653 0.414486 4.780225
2009-02-27 09:56:40 51°24.82 2°46.526 -999 0.075653 0.414493 4.745401
2009-02-27 09:56:45 51°24.827 2°46.547 -999 0.075653 0.414508 4.745401
2009-02-27 09:56:50 51°24.837 2°46.564 -999 0.075653 0.414493 4.815049
2009-02-27 09:56:55 51°24.844 2°46.584 -999 0.075653 0.414493 4.815049
2009-02-27 09:57:00 51°24.854 2°46.603 -999 0.075653 0.414515 4.884697
2009-02-27 09:57:05 51°24.861 2°46.622 -999 0.075653 0.414508 4.954345
2009-02-27 09:57:10 51°24.869 2°46.642 -999 0.075653 0.414515 5.023993
2009-02-27 09:57:15 51°24.879 2°46.66 -999 0.075653 0.414515 5.023993
2009-02-27 09:57:20 51°24.886 2°46.68 -999 0.075653 0.414523 4.989169
2009-02-27 09:57:25 51°24.895 2°46.698 -999 0.075653 0.414523 4.989169
2009-02-27 09:57:30 51°24.903 2°46.718 -999 0.075653 0.414515 4.989169
2009-02-27 09:57:36 51°24.913 2°46.741 -999 0.075653 0.41453 5.093641
2009-02-27 09:57:40 51°24.919 2°46.757 -999 0.075653 0.414515 5.058817
2009-02-27 09:57:45 51°24.928 2°46.776 -999 0.075653 0.414523 4.989169
2009-02-27 09:57:50 51°24.936 2°46.796 -999 0.075653 0.414523 5.023993
2009-02-27 09:57:56 51°24.945 2°46.82 -999 0.075653 0.414523 5.023993
2009-02-27 09:58:00 51°24.951 2°46.836 -999 0.075653 0.414515 4.989169
2009-02-27 09:58:05 51°24.959 2°46.856 -999 0.075653 0.41453 5.023993
2009-02-27 09:58:10 51°24.967 2°46.876 -999 0.075653 0.414523 5.023993
2009-02-27 09:58:16 51°24.977 2°46.899 -999 0.075653 0.41453 5.093641
2009-02-27 09:58:20 51°24.982 2°46.915 -999 0.075653 0.41453 5.198113
2009-02-27 09:58:25 51°24.99 2°46.935 -999 0.075653 0.41453 5.198113
2009-02-27 09:58:31 51°25 2°46.958 -999 0.075653 0.41453 5.198113
2009-02-27 09:58:36 51°25.007 2°46.978 -999 0.075653 0.414537 5.198113
2009-02-27 09:58:40 51°25.014 2°46.993 -999 0.075653 0.414537 5.232937
2009-02-27 09:58:45 51°25.021 2°47.013 -999 0.075653 0.414537 5.302586
2009-02-27 09:58:50 51°25.029 2°47.032 -999 0.075653 0.414545 5.407058
2009-02-27 09:58:55 51°25.037 2°47.052 -999 0.075653 0.414545 5.407058
2009-02-27 09:59:00 51°25.045 2°47.071 -999 0.075653 0.414545 5.51153
2009-02-27 09:59:05 51°25.053 2°47.091 -999 0.075653 0.414552 5.407058
2009-02-27 09:59:10 51°25.061 2°47.111 -999 0.075653 0.414552 5.33741
2009-02-27 09:59:15 51°25.069 2°47.129 -999 0.075653 0.414559 5.302586
2009-02-27 09:59:20 51°25.077 2°47.148 -999 0.075653 0.414552 5.302586
2009-02-27 09:59:25 51°25.085 2°47.168 -999 0.075653 0.414552 5.302586
2009-02-27 09:59:30 51°25.094 2°47.186 -999 0.075653 0.414567 5.407058
2009-02-27 09:59:36 51°25.103 2°47.21 -999 0.075653 0.414559 5.407058
2009-02-27 09:59:40 51°25.11 2°47.224 -999 0.075653 0.414574 5.372234
2009-02-27 09:59:45 51°25.117 2°47.245 -999 0.075653 0.414582 5.372234
2009-02-27 09:59:50 51°25.126 2°47.263 -999 0.075653 0.414574 5.267761
2009-02-27 09:59:56 51°25.136 2°47.287 -999 0.075653 0.414574 5.267761
2009-02-27 10:00:00 51°25.143 2°47.302 -999 0.075653 0.414589 5.267761
2009-02-27 10:00:05 51°25.15 2°47.322 -999 0.075653 0.414582 5.232937
2009-02-27 10:00:10 51°25.159 2°47.34 -999 0.075653 0.414582 5.163289
2009-02-27 10:00:16 51°25.168 2°47.364 -999 0.075653 0.414589 5.058817
2009-02-27 10:00:20 51°25.175 2°47.379 -999 0.075653 0.414589 5.093641
2009-02-27 10:00:25 51°25.182 2°47.399 -999 0.075653 0.414589 5.093641
2009-02-27 10:00:31 51°25.193 2°47.421 -999 0.075653 0.414604 5.023993
2009-02-27 10:00:36 51°25.201 2°47.441 -999 0.075653 0.414604 4.849873
2009-02-27 10:00:40 51°25.207 2°47.456 -999 0.075653 0.414604 4.710577
2009-02-27 10:00:45 51°25.216 2°47.475 -999 0.075653 0.414596 4.675753
2009-02-27 10:00:50 51°25.224 2°47.495 -999 0.075653 0.414596 4.675753
2009-02-27 10:00:56 51°25.234 2°47.518 -999 0.075653 0.414596 4.675753
2009-02-27 10:01:00 51°25.241 2°47.533 -999 0.075653 0.414604 4.640929
2009-02-27 10:01:05 51°25.249 2°47.553 -999 0.075653 0.414596 4.640929
2009-02-27 10:01:10 51°25.258 2°47.572 -999 0.075653 0.414596 4.57128
2009-02-27 10:01:15 51°25.266 2°47.592 -999 0.075653 0.414596 4.606104
2009-02-27 10:01:20 51°25.274 2°47.612 -999 0.075653 0.414604 4.57128
2009-02-27 10:01:25 51°25.282 2°47.631 -999 0.075653 0.414604 4.57128